SAS983A EKCH-RJAA

Flight info

Callsign SAS983A
Flight time 12h 27m
Altitude 35000
Route SIMEG Z493 XELOL DCT KELEL DCT KEKED DCT KARIL DCT DINRO N743 UDROS UN743 GAKSU UN644 ROLIN N644 LAGAS/N0487F370 M747 SUBUT T916 LEYLA N161 GASBI/K0900F370 N161 BURID/K0887F390 N161 SARIN/K0887S1190 A368 FKG W188 GOVSA W66 DKO W69 HUR B339 LADIX W34 VAPGU/K0900S1250 W100 ORAVA W201 UNSEK A326 DONVO G597 AGAVO/N0487F410 Y697 LANAT Y51 SAMON Y517 LIVET GOT SWAMP
Aircraft A359/H-SDE2E3GHIJ1J3J4J5LM1ORWXY/LB1D1

Departure

Time 2026-04-22 21:13
Airport Copenhagen Kastrup Airport (EKCH)

Arrival

Time 2026-04-23 09:41
Airport Narita International Airport (RJAA)
Time Latitude Longitude Altitude Speed Heading
2026-04-22 18:26 55.62422 12.64901 30 ft 0 kts 89°
2026-04-22 20:56 55.62422 12.64885 30 ft 4 kts 93°
2026-04-22 20:56 55.62426 12.64839 30 ft 4 kts 112°
2026-04-22 20:57 55.62440 12.64800 28 ft 4 kts 138°
2026-04-22 20:57 55.62462 12.64775 26 ft 4 kts 162°
2026-04-22 20:57 55.62488 12.64765 28 ft 4 kts 177°
2026-04-22 20:57 55.62515 12.64765 28 ft 4 kts 185°
2026-04-22 20:58 55.62542 12.64770 29 ft 4 kts 182°
2026-04-22 20:58 55.62548 12.64770 28 ft 0 kts 178°
2026-04-22 21:02 55.62522 12.64772 30 ft 8 kts 179°
2026-04-22 21:02 55.62473 12.64775 30 ft 6 kts 177°
2026-04-22 21:02 55.62425 12.64779 30 ft 8 kts 177°
2026-04-22 21:03 55.62377 12.64814 30 ft 8 kts 134°
2026-04-22 21:03 55.62345 12.64892 30 ft 8 kts 125°
2026-04-22 21:03 55.62313 12.64978 30 ft 9 kts 123°
2026-04-22 21:03 55.62277 12.65078 30 ft 10 kts 122°
2026-04-22 21:04 55.62227 12.65163 30 ft 9 kts 164°
2026-04-22 21:04 55.62172 12.65129 29 ft 9 kts 208°
2026-04-22 21:04 55.62119 12.65073 30 ft 9 kts 214°
2026-04-22 21:04 55.62063 12.65008 30 ft 10 kts 213°
2026-04-22 21:05 55.62001 12.64938 30 ft 11 kts 213°
2026-04-22 21:05 55.61928 12.64855 29 ft 13 kts 213°
2026-04-22 21:05 55.61849 12.64763 30 ft 14 kts 213°
2026-04-22 21:05 55.61763 12.64664 30 ft 15 kts 213°
2026-04-22 21:06 55.61669 12.64558 30 ft 17 kts 213°
2026-04-22 21:06 55.61601 12.64478 30 ft 10 kts 213°
2026-04-22 21:06 55.61539 12.64407 30 ft 11 kts 213°
2026-04-22 21:06 55.61475 12.64333 30 ft 12 kts 213°
2026-04-22 21:07 55.61404 12.64252 30 ft 13 kts 213°
2026-04-22 21:07 55.61330 12.64167 30 ft 13 kts 213°
2026-04-22 21:07 55.61250 12.64074 30 ft 14 kts 213°
2026-04-22 21:07 55.61170 12.63983 30 ft 7 kts 213°
2026-04-22 21:08 55.61141 12.63948 30 ft 8 kts 213°
2026-04-22 21:08 55.61084 12.63882 30 ft 12 kts 213°
2026-04-22 21:08 55.61007 12.63794 30 ft 14 kts 213°
2026-04-22 21:08 55.60926 12.63702 30 ft 14 kts 213°
2026-04-22 21:09 55.60843 12.63607 30 ft 14 kts 213°
2026-04-22 21:09 55.60759 12.63512 30 ft 15 kts 213°
2026-04-22 21:09 55.60673 12.63411 30 ft 15 kts 215°
2026-04-22 21:09 55.60593 12.63294 30 ft 15 kts 221°
2026-04-22 21:10 55.60515 12.63172 30 ft 11 kts 220°
2026-04-22 21:10 55.60453 12.63119 30 ft 10 kts 181°
2026-04-22 21:10 55.60396 12.63180 30 ft 10 kts 136°
2026-04-22 21:10 55.60351 12.63269 31 ft 9 kts 130°
2026-04-22 21:11 55.60342 12.63331 32 ft 4 kts 79°
2026-04-22 21:11 55.60362 12.63378 32 ft 6 kts 44°
2026-04-22 21:11 55.60382 12.63412 32 ft 0 kts 42°
2026-04-22 21:12 55.60469 12.63547 30 ft 49 kts 41°
2026-04-22 21:13 55.60912 12.64234 31 ft 119 kts 41°
2026-04-22 21:13 55.61697 12.65452 32 ft 179 kts 40°
2026-04-22 21:13 55.62618 12.66903 832 ft 172 kts 37°
2026-04-22 21:13 55.63476 12.68306 1575 ft 166 kts 37°
2026-04-22 21:14 55.64317 12.69712 1996 ft 169 kts 37°
2026-04-22 21:14 55.65185 12.71156 2346 ft 173 kts 37°
2026-04-22 21:14 55.66101 12.72624 2597 ft 183 kts 35°
2026-04-22 21:14 55.67093 12.74134 2869 ft 194 kts 34°
2026-04-22 21:15 55.68171 12.75692 3121 ft 208 kts 33°
2026-04-22 21:15 55.69355 12.77317 3366 ft 222 kts 32°
2026-04-22 21:15 55.70626 12.79028 3627 ft 238 kts 32°
2026-04-22 21:15 55.71912 12.81006 3930 ft 253 kts 47°
2026-04-22 21:16 55.72623 12.83926 4426 ft 269 kts 77°
2026-04-22 21:16 55.72358 12.87268 4916 ft 285 kts 111°
2026-04-22 21:16 55.71132 12.90041 5444 ft 291 kts 142°
2026-04-22 21:16 55.69275 12.91466 5893 ft 295 kts 174°
2026-04-22 21:17 55.67256 12.91086 6303 ft 293 kts 206°
2026-04-22 21:17 55.65367 12.89729 6798 ft 296 kts 203°
2026-04-22 21:17 55.63305 12.89424 7243 ft 303 kts 169°
2026-04-22 21:17 55.61351 12.90766 7770 ft 303 kts 155°
2026-04-22 21:18 55.59296 12.91533 8149 ft 305 kts 186°
2026-04-22 21:18 55.57333 12.90475 8603 ft 299 kts 218°
2026-04-22 21:18 55.55954 12.87817 9052 ft 287 kts 250°
2026-04-22 21:18 55.55117 12.84639 9577 ft 289 kts 248°
2026-04-22 21:19 55.53969 12.81721 10080 ft 297 kts 234°
2026-04-22 21:19 55.52453 12.79161 10429 ft 311 kts 219°
2026-04-22 21:19 55.50406 12.77681 10621 ft 331 kts 189°
2026-04-22 21:19 55.48058 12.77770 10854 ft 344 kts 173°
2026-04-22 21:20 55.45643 12.78330 11086 ft 356 kts 173°
2026-04-22 21:20 55.43168 12.79087 11300 ft 367 kts 165°
2026-04-22 21:20 55.40802 12.80901 11500 ft 377 kts 144°
2026-04-22 21:20 55.38939 12.84141 11718 ft 381 kts 120°
2026-04-22 21:21 55.37863 12.88385 11903 ft 382 kts 99°
2026-04-22 21:21 55.37585 12.93037 12110 ft 386 kts 88°
2026-04-22 21:21 55.37436 12.97800 12352 ft 394 kts 90°
2026-04-22 21:21 55.37156 13.02628 12724 ft 399 kts 94°
2026-04-22 21:22 55.36725 13.07468 13133 ft 403 kts 97°
2026-04-22 21:22 55.36129 13.12291 13519 ft 407 kts 101°
2026-04-22 21:22 55.35356 13.17112 13885 ft 410 kts 104°
2026-04-22 21:22 55.34408 13.21860 14252 ft 414 kts 108°
2026-04-22 21:23 55.33245 13.26506 14632 ft 417 kts 113°
2026-04-22 21:23 55.31845 13.30986 15000 ft 421 kts 119°
2026-04-22 21:23 55.30203 13.35249 15387 ft 423 kts 122°
2026-04-22 21:23 55.28657 13.39653 15692 ft 425 kts 114°
2026-04-22 21:24 55.27342 13.44313 16026 ft 427 kts 113°
2026-04-22 21:24 55.25894 13.48872 16399 ft 431 kts 120°
2026-04-22 21:24 55.24059 13.53062 16766 ft 435 kts 128°
2026-04-22 21:24 55.22032 13.57023 17124 ft 438 kts 130°
2026-04-22 21:25 55.19973 13.60884 17488 ft 440 kts 130°
2026-04-22 21:25 55.17884 13.64811 17847 ft 442 kts 129°
2026-04-22 21:25 55.15810 13.68783 18204 ft 443 kts 129°
2026-04-22 21:25 55.13748 13.72809 18539 ft 445 kts 128°
2026-04-22 21:26 55.11699 13.76868 18847 ft 446 kts 128°
2026-04-22 21:26 55.09656 13.80946 19191 ft 446 kts 128°
2026-04-22 21:26 55.07613 13.85031 19526 ft 448 kts 128°
2026-04-22 21:26 55.05560 13.89136 19821 ft 449 kts 127°
2026-04-22 21:27 55.03499 13.93250 20143 ft 450 kts 128°
2026-04-22 21:27 55.01437 13.97352 20463 ft 452 kts 128°
2026-04-22 21:27 54.99359 14.01477 20792 ft 453 kts 128°
2026-04-22 21:27 54.97275 14.05605 21099 ft 454 kts 128°
2026-04-22 21:28 54.95185 14.09736 21469 ft 454 kts 128°
2026-04-22 21:28 54.93084 14.13832 21848 ft 455 kts 130°
2026-04-22 21:28 54.90730 14.17546 22132 ft 460 kts 137°
2026-04-22 21:28 54.88192 14.20957 22430 ft 463 kts 140°
2026-04-22 21:29 54.85577 14.24245 22734 ft 465 kts 141°
2026-04-22 21:29 54.82920 14.27467 23010 ft 468 kts 142°
2026-04-22 21:29 54.80228 14.30683 23277 ft 470 kts 142°
2026-04-22 21:29 54.77531 14.33893 23591 ft 471 kts 142°
2026-04-22 21:30 54.74816 14.37086 23867 ft 473 kts 142°
2026-04-22 21:30 54.72060 14.40209 24104 ft 475 kts 143°
2026-04-22 21:30 54.69276 14.43307 24327 ft 477 kts 143°
2026-04-22 21:30 54.66483 14.46403 24564 ft 478 kts 143°
2026-04-22 21:31 54.63688 14.49509 24864 ft 477 kts 143°
2026-04-22 21:31 54.60907 14.52611 25177 ft 477 kts 143°
2026-04-22 21:31 54.58113 14.55743 25413 ft 479 kts 143°
2026-04-22 21:31 54.55318 14.58879 25645 ft 481 kts 143°
2026-04-22 21:32 54.52507 14.62025 25897 ft 482 kts 143°
2026-04-22 21:32 54.49685 14.65177 26112 ft 485 kts 143°
2026-04-22 21:32 54.46844 14.68349 26317 ft 488 kts 143°
2026-04-22 21:32 54.43996 14.71521 26582 ft 489 kts 143°
2026-04-22 21:33 54.41137 14.74698 26845 ft 490 kts 143°
2026-04-22 21:33 54.38271 14.77879 27098 ft 492 kts 143°
2026-04-22 21:33 54.35393 14.81066 27344 ft 493 kts 143°
2026-04-22 21:33 54.32512 14.84250 27712 ft 492 kts 143°
2026-04-22 21:34 54.29637 14.87424 27986 ft 493 kts 143°
2026-04-22 21:34 54.26786 14.90581 28185 ft 495 kts 142°
2026-04-22 21:34 54.23947 14.93884 28406 ft 495 kts 141°
2026-04-22 21:34 54.21143 14.97301 28628 ft 496 kts 140°
2026-04-22 21:35 54.18346 15.00765 28861 ft 497 kts 140°
2026-04-22 21:35 54.15532 15.04248 28970 ft 501 kts 140°
2026-04-22 21:35 54.12704 15.07723 29244 ft 500 kts 140°
2026-04-22 21:35 54.09879 15.11163 29590 ft 499 kts 140°
2026-04-22 21:36 54.07048 15.14587 29909 ft 498 kts 140°
2026-04-22 21:36 54.04223 15.17987 30229 ft 497 kts 140°
2026-04-22 21:36 54.01414 15.21356 30670 ft 492 kts 140°
2026-04-22 21:36 53.98628 15.24689 31008 ft 489 kts 140°
2026-04-22 21:37 53.95848 15.28014 31240 ft 489 kts 140°
2026-04-22 21:37 53.93063 15.31342 31455 ft 489 kts 140°
2026-04-22 21:37 53.90288 15.34655 31711 ft 488 kts 140°
2026-04-22 21:37 53.87515 15.37958 31948 ft 487 kts 140°
2026-04-22 21:38 53.84743 15.41254 32190 ft 486 kts 140°
2026-04-22 21:38 53.81977 15.44538 32428 ft 485 kts 139°
2026-04-22 21:38 53.79216 15.47810 32647 ft 485 kts 139°
2026-04-22 21:38 53.76456 15.51075 32877 ft 484 kts 139°
2026-04-22 21:39 53.73712 15.54317 33122 ft 483 kts 139°
2026-04-22 21:39 53.70961 15.57557 33564 ft 477 kts 139°
2026-04-22 21:39 53.68248 15.60746 33886 ft 474 kts 139°
2026-04-22 21:39 53.65543 15.63927 34068 ft 474 kts 139°
2026-04-22 21:40 53.62839 15.67104 34232 ft 474 kts 139°
2026-04-22 21:40 53.60129 15.70283 34396 ft 474 kts 139°
2026-04-22 21:40 53.57424 15.73449 34561 ft 474 kts 139°
2026-04-22 21:40 53.54711 15.76621 34617 ft 476 kts 139°
2026-04-22 21:41 53.51989 15.79798 34730 ft 476 kts 139°
2026-04-22 21:41 53.49271 15.82962 34928 ft 475 kts 139°
2026-04-22 21:41 53.46588 15.86080 35071 ft 475 kts 139°
2026-04-22 21:41 53.43870 15.89233 35178 ft 475 kts 139°
2026-04-22 21:42 53.38411 15.95559 35191 ft 477 kts 139°
2026-04-22 21:42 53.32947 16.01863 35189 ft 477 kts 139°
2026-04-22 21:43 53.27484 16.08147 35189 ft 477 kts 139°
2026-04-22 21:43 53.22004 16.14434 35195 ft 479 kts 139°
2026-04-22 21:44 53.16518 16.20708 35190 ft 479 kts 139°
2026-04-22 21:44 53.11937 16.25930 35199 ft 479 kts 139°
2026-04-22 21:45 53.06449 16.32164 35170 ft 477 kts 139°
2026-04-22 21:45 53.00974 16.38368 35192 ft 476 kts 139°
2026-04-22 21:46 52.95498 16.44556 35185 ft 477 kts 139°
2026-04-22 21:46 52.90001 16.50748 35185 ft 478 kts 139°
2026-04-22 21:47 52.84497 16.56927 35184 ft 478 kts 139°
2026-04-22 21:47 52.78992 16.63087 35185 ft 477 kts 139°
2026-04-22 21:48 52.73495 16.69218 35188 ft 477 kts 139°
2026-04-22 21:48 52.67997 16.75334 35173 ft 477 kts 140°
2026-04-22 21:49 52.62491 16.81440 35171 ft 478 kts 139°
2026-04-22 21:49 52.56965 16.87550 35162 ft 479 kts 139°
2026-04-22 21:50 52.51432 16.93646 35189 ft 479 kts 140°
2026-04-22 21:50 52.45913 16.99704 35175 ft 476 kts 140°
2026-04-22 21:51 52.40406 17.05736 35176 ft 476 kts 140°
2026-04-22 21:52 52.32133 17.14765 35170 ft 478 kts 140°
2026-04-22 21:52 52.26636 17.20741 35176 ft 478 kts 140°
2026-04-22 21:53 52.21090 17.26751 35166 ft 479 kts 140°
2026-04-22 21:53 52.15539 17.32746 35173 ft 479 kts 140°
2026-04-22 21:54 52.09986 17.38726 35168 ft 479 kts 140°
2026-04-22 21:54 52.04430 17.44692 35176 ft 479 kts 140°
2026-04-22 21:55 51.98857 17.50660 35167 ft 480 kts 140°
2026-04-22 21:55 51.93275 17.56617 35168 ft 480 kts 140°
2026-04-22 21:56 51.87698 17.62548 35165 ft 479 kts 140°
2026-04-22 21:56 51.82125 17.68460 35165 ft 479 kts 140°
2026-04-22 21:57 51.76556 17.74351 35183 ft 479 kts 140°
2026-04-22 21:57 51.70966 17.80247 35163 ft 480 kts 140°
2026-04-22 21:58 51.65370 17.86132 35165 ft 481 kts 140°
2026-04-22 21:58 51.59769 17.92000 35151 ft 480 kts 140°
2026-04-22 21:59 51.54183 17.97836 35168 ft 479 kts 140°
2026-04-22 21:59 51.48596 18.03658 35147 ft 479 kts 140°
2026-04-22 22:00 51.43002 18.09470 35158 ft 480 kts 140°
2026-04-22 22:00 51.37393 18.15282 35153 ft 480 kts 140°
2026-04-22 22:01 51.31780 18.21079 35159 ft 480 kts 140°
2026-04-22 22:01 51.26180 18.26842 35146 ft 479 kts 140°
2026-04-22 22:02 51.20568 18.32604 35148 ft 479 kts 140°
2026-04-22 22:02 51.14996 18.38309 35143 ft 480 kts 140°
2026-04-22 22:03 51.09375 18.44049 35145 ft 481 kts 140°
2026-04-22 22:03 51.03735 18.49787 35147 ft 481 kts 140°
2026-04-22 22:04 50.98108 18.55495 35140 ft 480 kts 140°
2026-04-22 22:04 50.92484 18.61185 35137 ft 479 kts 140°
2026-04-22 22:05 50.86857 18.66862 35141 ft 479 kts 140°
2026-04-22 22:05 50.81235 18.72517 35133 ft 480 kts 140°
2026-04-22 22:06 50.75595 18.78175 35143 ft 480 kts 140°
2026-04-22 22:06 50.69969 18.83800 35134 ft 478 kts 140°
2026-04-22 22:07 50.64353 18.89399 35134 ft 478 kts 140°
2026-04-22 22:07 50.58737 18.94985 35131 ft 478 kts 140°
2026-04-22 22:08 50.53112 19.00564 35130 ft 479 kts 140°
2026-04-22 22:08 50.47471 19.06140 35130 ft 479 kts 140°
2026-04-22 22:09 50.41835 19.11694 35129 ft 477 kts 140°
2026-04-22 22:09 50.36211 19.17222 35129 ft 477 kts 140°
2026-04-22 22:10 50.30623 19.22702 35151 ft 477 kts 140°
2026-04-22 22:10 50.24991 19.28210 35131 ft 478 kts 140°
2026-04-22 22:11 50.19347 19.33713 35135 ft 478 kts 140°
2026-04-22 22:11 50.13709 19.39193 35138 ft 477 kts 140°
2026-04-22 22:12 50.08071 19.44656 35138 ft 477 kts 140°
2026-04-22 22:12 50.02438 19.50101 35148 ft 477 kts 140°
2026-04-22 22:13 49.96787 19.55550 35144 ft 479 kts 140°
2026-04-22 22:13 49.91117 19.61000 35151 ft 479 kts 140°
2026-04-22 22:14 49.85449 19.66430 35150 ft 478 kts 140°
2026-04-22 22:14 49.79792 19.71835 35159 ft 478 kts 140°
2026-04-22 22:15 49.74132 19.77230 35153 ft 478 kts 141°
2026-04-22 22:15 49.68465 19.82619 35171 ft 479 kts 140°
2026-04-22 22:16 49.62780 19.88010 35153 ft 480 kts 140°
2026-04-22 22:16 49.57090 19.93388 35169 ft 478 kts 141°
2026-04-22 22:17 49.51420 19.98729 35166 ft 478 kts 141°
2026-04-22 22:17 49.45748 20.04061 35165 ft 478 kts 141°
2026-04-22 22:18 49.40076 20.09381 35163 ft 479 kts 141°
2026-04-22 22:18 49.34382 20.14706 35167 ft 479 kts 141°
2026-04-22 22:19 49.29143 20.20768 35162 ft 467 kts 130°
2026-04-22 22:19 49.24367 20.27486 35169 ft 466 kts 129°
2026-04-22 22:20 49.19694 20.34250 35158 ft 466 kts 129°
2026-04-22 22:20 49.14980 20.41056 35126 ft 467 kts 129°
2026-04-22 22:21 49.10249 20.47831 35131 ft 467 kts 129°
2026-04-22 22:21 49.05494 20.54604 35131 ft 467 kts 129°
2026-04-22 22:22 49.00740 20.61354 35145 ft 467 kts 129°
2026-04-22 22:22 48.95977 20.68102 35148 ft 468 kts 129°
2026-04-22 22:23 48.91203 20.74851 35143 ft 469 kts 129°
2026-04-22 22:23 48.86420 20.81591 35137 ft 469 kts 129°
2026-04-22 22:24 48.81630 20.88321 35136 ft 469 kts 130°
2026-04-22 22:24 48.76835 20.95040 35148 ft 469 kts 130°
2026-04-22 22:25 48.72030 21.01753 35126 ft 471 kts 130°
2026-04-22 22:25 48.67212 21.08472 35131 ft 471 kts 130°
2026-04-22 22:26 48.62385 21.15182 35129 ft 471 kts 130°
2026-04-22 22:26 48.57555 21.21876 35130 ft 471 kts 130°
2026-04-22 22:27 48.52714 21.28571 35119 ft 472 kts 130°
2026-04-22 22:27 48.48061 21.35508 35127 ft 469 kts 126°
2026-04-22 22:28 48.43681 21.42769 35106 ft 468 kts 125°
2026-04-22 22:28 48.39290 21.50009 35119 ft 468 kts 126°
2026-04-22 22:29 48.34841 21.57183 35111 ft 470 kts 126°
2026-04-22 22:29 48.30349 21.64344 35108 ft 471 kts 127°
2026-04-22 22:30 48.25876 21.71443 35111 ft 471 kts 127°
2026-04-22 22:30 48.21337 21.78633 35119 ft 471 kts 127°
2026-04-22 22:31 48.16827 21.85764 35137 ft 471 kts 127°
2026-04-22 22:31 48.12333 21.92853 35120 ft 474 kts 127°
2026-04-22 22:32 48.07782 22.00010 35119 ft 475 kts 127°
2026-04-22 22:32 48.03227 22.07153 35122 ft 475 kts 128°
2026-04-22 22:33 47.98661 22.14293 35113 ft 476 kts 128°
2026-04-22 22:33 47.94078 22.21440 35109 ft 478 kts 128°
2026-04-22 22:34 47.90256 22.27387 35109 ft 478 kts 128°
2026-04-22 22:34 47.85646 22.34540 35102 ft 479 kts 128°
2026-04-22 22:35 47.81030 22.41683 35103 ft 479 kts 128°
2026-04-22 22:35 47.76490 22.48912 35111 ft 477 kts 125°
2026-04-22 22:36 47.72233 22.56457 35103 ft 476 kts 124°
2026-04-22 22:36 47.68001 22.64030 35105 ft 477 kts 125°
2026-04-22 22:37 47.63715 22.71552 35103 ft 478 kts 125°
2026-04-22 22:37 47.59397 22.79040 35112 ft 478 kts 126°
2026-04-22 22:38 47.55061 22.86523 35103 ft 479 kts 126°
2026-04-22 22:38 47.50720 22.93998 35105 ft 479 kts 126°
2026-04-22 22:39 47.46373 23.01465 35115 ft 479 kts 126°
2026-04-22 22:39 47.42024 23.08918 35120 ft 479 kts 126°
2026-04-22 22:40 47.37656 23.16382 35118 ft 481 kts 126°
2026-04-22 22:40 47.33282 23.23835 35119 ft 481 kts 126°
2026-04-22 22:41 47.28891 23.31297 35115 ft 482 kts 126°
2026-04-22 22:41 47.24522 23.38698 35133 ft 482 kts 127°
2026-04-22 22:42 47.20111 23.46153 35106 ft 484 kts 127°
2026-04-22 22:42 47.15678 23.53621 35122 ft 485 kts 127°
2026-04-22 22:43 47.11242 23.61076 35125 ft 485 kts 127°
2026-04-22 22:43 47.06798 23.68524 35108 ft 485 kts 127°
2026-04-22 22:44 47.02340 23.75975 35110 ft 487 kts 127°
2026-04-22 22:44 46.97872 23.83421 35114 ft 487 kts 128°
2026-04-22 22:45 46.93380 23.90887 35113 ft 489 kts 128°
2026-04-22 22:45 46.88881 23.98344 35116 ft 489 kts 128°
2026-04-22 22:46 46.84365 24.05809 35110 ft 491 kts 128°
2026-04-22 22:46 46.79835 24.13276 35113 ft 491 kts 128°
2026-04-22 22:47 46.75301 24.20728 35117 ft 491 kts 128°
2026-04-22 22:47 46.70759 24.28175 35124 ft 492 kts 128°
2026-04-22 22:48 46.66204 24.35621 35117 ft 493 kts 128°
2026-04-22 22:48 46.61634 24.43073 35109 ft 493 kts 129°
2026-04-22 22:49 46.57058 24.50512 35101 ft 494 kts 129°
2026-04-22 22:49 46.52475 24.57942 35107 ft 494 kts 129°
2026-04-22 22:50 46.47891 24.65353 35109 ft 494 kts 129°
2026-04-22 22:50 46.43295 24.72765 35112 ft 494 kts 129°
2026-04-22 22:51 46.38698 24.80158 35110 ft 494 kts 129°
2026-04-22 22:51 46.34096 24.87533 35115 ft 492 kts 129°
2026-04-22 22:52 46.29511 24.94867 35121 ft 491 kts 129°
2026-04-22 22:52 46.24925 25.02189 35119 ft 492 kts 129°
2026-04-22 22:53 46.20320 25.09516 35134 ft 493 kts 129°
2026-04-22 22:53 46.15701 25.16842 35125 ft 494 kts 129°
2026-04-22 22:54 46.11071 25.24169 35124 ft 494 kts 129°
2026-04-22 22:54 46.06434 25.31488 35122 ft 494 kts 129°
2026-04-22 22:55 46.01793 25.38792 35120 ft 495 kts 130°
2026-04-22 22:55 45.94810 25.49745 35102 ft 496 kts 130°
2026-04-22 22:56 45.90179 25.56985 35093 ft 495 kts 130°
2026-04-22 22:56 45.85514 25.64258 35099 ft 495 kts 130°
2026-04-22 22:57 45.80838 25.71533 35090 ft 497 kts 130°
2026-04-22 22:57 45.76146 25.78808 35093 ft 497 kts 130°
2026-04-22 22:58 45.71447 25.86077 35101 ft 497 kts 130°
2026-04-22 22:58 45.66747 25.93326 35127 ft 497 kts 131°
2026-04-22 22:59 45.62030 26.00583 35121 ft 499 kts 131°
2026-04-22 22:59 45.57302 26.07840 35121 ft 499 kts 131°
2026-04-22 23:00 45.52570 26.15084 35121 ft 499 kts 131°
2026-04-22 23:00 45.47823 26.22330 35122 ft 501 kts 131°
2026-04-22 23:01 45.43061 26.29578 35116 ft 501 kts 131°
2026-04-22 23:01 45.38292 26.36817 35111 ft 502 kts 131°
2026-04-22 23:02 45.33514 26.44052 35108 ft 501 kts 132°
2026-04-22 23:02 45.28729 26.51280 35110 ft 503 kts 132°
2026-04-22 23:03 45.23932 26.58506 35094 ft 503 kts 132°
2026-04-22 23:03 45.19134 26.65715 35090 ft 504 kts 132°
2026-04-22 23:04 45.14315 26.72936 35097 ft 504 kts 133°
2026-04-22 23:04 45.09484 26.80155 35090 ft 505 kts 133°
2026-04-22 23:05 45.04643 26.87371 35064 ft 505 kts 133°
2026-04-22 23:05 44.99797 26.94575 35083 ft 505 kts 133°
2026-04-22 23:06 44.94975 27.01726 35068 ft 507 kts 133°
2026-04-22 23:06 44.90104 27.08929 35067 ft 507 kts 133°
2026-04-22 23:07 44.85226 27.16127 35078 ft 508 kts 134°
2026-04-22 23:07 44.80339 27.23314 35060 ft 508 kts 134°
2026-04-22 23:08 44.75448 27.30490 35061 ft 508 kts 134°
2026-04-22 23:08 44.70551 27.37656 35078 ft 508 kts 134°
2026-04-22 23:09 44.65656 27.44800 35069 ft 508 kts 134°
2026-04-22 23:09 44.60743 27.51954 35063 ft 509 kts 134°
2026-04-22 23:10 44.55817 27.59108 35072 ft 510 kts 134°
2026-04-22 23:10 44.50881 27.66256 35070 ft 511 kts 134°
2026-04-22 23:11 44.45932 27.73406 35070 ft 511 kts 135°
2026-04-22 23:11 44.40974 27.80550 35068 ft 512 kts 135°
2026-04-22 23:12 44.36001 27.87695 35069 ft 512 kts 135°
2026-04-22 23:12 44.31030 27.94820 35069 ft 512 kts 135°
2026-04-22 23:13 44.26046 28.01946 35071 ft 513 kts 135°
2026-04-22 23:13 44.21049 28.09071 35062 ft 514 kts 135°
2026-04-22 23:14 44.16049 28.16183 35062 ft 514 kts 135°
2026-04-22 23:14 44.11038 28.23293 35062 ft 515 kts 136°
2026-04-22 23:15 44.06014 28.30400 35062 ft 515 kts 136°
2026-04-22 23:15 44.00984 28.37499 35063 ft 515 kts 136°
2026-04-22 23:16 43.95947 28.44590 35059 ft 515 kts 136°
2026-04-22 23:16 43.90902 28.51674 35062 ft 516 kts 136°
2026-04-22 23:17 43.85854 28.58744 35059 ft 516 kts 137°
2026-04-22 23:17 43.80791 28.65816 35063 ft 516 kts 137°
2026-04-22 23:18 43.75761 28.72826 35069 ft 517 kts 137°
2026-04-22 23:18 43.70729 28.79937 35067 ft 519 kts 133°
2026-04-22 23:19 43.66301 28.87851 35066 ft 521 kts 128°
2026-04-22 23:19 43.62044 28.95955 35067 ft 522 kts 128°
2026-04-22 23:20 43.57803 29.04095 35067 ft 523 kts 128°
2026-04-22 23:20 43.53544 29.12219 35067 ft 523 kts 128°
2026-04-22 23:21 43.49271 29.20322 35054 ft 523 kts 129°
2026-04-22 23:21 43.44972 29.28442 35065 ft 525 kts 129°
2026-04-22 23:22 43.40661 29.36563 35064 ft 525 kts 129°
2026-04-22 23:22 43.37076 29.43301 35056 ft 525 kts 129°
2026-04-22 23:23 43.32752 29.51408 35062 ft 527 kts 129°
2026-04-22 23:23 43.28412 29.59522 35063 ft 527 kts 129°
2026-04-22 23:24 43.24072 29.67615 35067 ft 527 kts 129°
2026-04-22 23:24 43.19722 29.75703 35061 ft 527 kts 129°
2026-04-22 23:25 43.15371 29.83771 35060 ft 527 kts 129°
2026-04-22 23:25 43.11012 29.91832 35063 ft 527 kts 129°
2026-04-22 23:26 43.06649 29.99880 35067 ft 527 kts 130°
2026-04-22 23:26 43.02273 30.07929 35057 ft 527 kts 130°
2026-04-22 23:27 42.97892 30.15965 35073 ft 527 kts 130°
2026-04-22 23:27 42.93507 30.23986 35065 ft 528 kts 130°
2026-04-22 23:28 42.89108 30.32011 35063 ft 528 kts 130°
2026-04-22 23:28 42.84733 30.39971 35066 ft 528 kts 130°
2026-04-22 23:29 42.80329 30.47964 35061 ft 528 kts 131°
2026-04-22 23:29 42.75950 30.56025 35059 ft 531 kts 127°
2026-04-22 23:30 42.72843 30.65185 35067 ft 538 kts 110°
2026-04-22 23:30 42.70784 30.74992 35060 ft 540 kts 107°
2026-04-22 23:31 42.68896 30.84902 35061 ft 542 kts 106°
2026-04-22 23:31 42.66995 30.94796 35056 ft 542 kts 107°
2026-04-22 23:32 42.65051 31.04691 35056 ft 542 kts 107°
2026-04-22 23:32 42.63084 31.14575 35056 ft 542 kts 107°
2026-04-22 23:33 42.61107 31.24449 35059 ft 542 kts 107°
2026-04-22 23:33 42.59124 31.34315 35059 ft 542 kts 107°
2026-04-22 23:34 42.57132 31.44183 35055 ft 542 kts 108°
2026-04-22 23:34 42.55135 31.54027 35056 ft 541 kts 108°
2026-04-22 23:35 42.53129 31.63863 35056 ft 541 kts 108°
2026-04-22 23:35 42.51115 31.73695 35050 ft 541 kts 108°
2026-04-22 23:36 42.49095 31.83507 35054 ft 540 kts 108°
2026-04-22 23:36 42.47068 31.93307 35050 ft 540 kts 108°
2026-04-22 23:37 42.45036 32.03085 35056 ft 540 kts 108°
2026-04-22 23:37 42.42993 32.12871 35057 ft 540 kts 109°
2026-04-22 23:38 42.40957 32.22573 35056 ft 540 kts 109°
2026-04-22 23:38 42.38899 32.32336 35056 ft 540 kts 109°
2026-04-22 23:39 42.36832 32.42099 35055 ft 540 kts 109°
2026-04-22 23:39 42.34757 32.51852 35056 ft 540 kts 109°
2026-04-22 23:40 42.33022 32.61746 35053 ft 543 kts 103°
2026-04-22 23:40 42.31812 32.71820 35059 ft 543 kts 101°
2026-04-22 23:41 42.30684 32.81916 35056 ft 544 kts 101°
2026-04-22 23:41 42.29550 32.92010 35056 ft 543 kts 101°
2026-04-22 23:42 42.28394 33.02094 35056 ft 543 kts 102°
2026-04-22 23:42 42.27221 33.12177 35058 ft 545 kts 102°
2026-04-22 23:43 42.26036 33.22285 35061 ft 546 kts 102°
2026-04-22 23:43 42.24842 33.32399 35073 ft 546 kts 102°
2026-04-22 23:44 42.23638 33.42514 35055 ft 546 kts 102°
2026-04-22 23:44 42.22430 33.52586 35064 ft 548 kts 102°
2026-04-22 23:45 42.21202 33.62746 35067 ft 549 kts 102°
2026-04-22 23:45 42.19967 33.72899 35067 ft 549 kts 102°
2026-04-22 23:46 42.18948 33.83109 35066 ft 551 kts 95°
2026-04-22 23:46 42.18557 33.93453 35064 ft 553 kts 94°
2026-04-22 23:47 42.18269 34.03818 35064 ft 553 kts 94°
2026-04-22 23:47 42.17984 34.14182 35067 ft 553 kts 94°
2026-04-22 23:48 42.17677 34.24556 35064 ft 555 kts 94°
2026-04-22 23:48 42.17352 34.34965 35061 ft 556 kts 94°
2026-04-22 23:49 42.17017 34.45384 35064 ft 556 kts 94°
2026-04-22 23:49 42.16674 34.55725 35064 ft 556 kts 94°
2026-04-22 23:50 42.16320 34.66140 35063 ft 556 kts 94°
2026-04-22 23:50 42.15957 34.76544 35060 ft 556 kts 94°
2026-04-22 23:51 42.15585 34.86965 35062 ft 557 kts 94°
2026-04-22 23:51 42.15202 34.97389 35061 ft 557 kts 94°
2026-04-22 23:52 42.14810 35.07817 35063 ft 557 kts 94°
2026-04-22 23:52 42.14409 35.18236 35065 ft 557 kts 94°
2026-04-22 23:53 42.13998 35.28655 35059 ft 557 kts 94°
2026-04-22 23:53 42.13578 35.39077 35034 ft 557 kts 94°
2026-04-22 23:54 42.13150 35.49451 35058 ft 552 kts 94°
2026-04-22 23:54 42.12715 35.59768 35059 ft 551 kts 94°
2026-04-22 23:55 42.12271 35.70081 35054 ft 552 kts 94°
2026-04-22 23:55 42.11818 35.80395 35041 ft 551 kts 95°
2026-04-22 23:56 42.11360 35.90652 35050 ft 547 kts 95°
2026-04-22 23:56 42.10892 36.00870 35050 ft 546 kts 95°
2026-04-22 23:57 42.10414 36.11085 35048 ft 546 kts 95°
2026-04-22 23:57 42.09930 36.21297 35056 ft 546 kts 96°
2026-04-22 23:58 42.09437 36.31494 35048 ft 545 kts 96°
2026-04-22 23:58 42.08934 36.41676 35052 ft 545 kts 96°
2026-04-22 23:59 42.08422 36.51857 35044 ft 545 kts 97°
2026-04-22 23:59 42.07902 36.62039 35037 ft 545 kts 97°
2026-04-23 00:00 42.07195 36.75584 35047 ft 545 kts 97°
2026-04-23 00:01 42.06566 36.87412 35045 ft 545 kts 97°
2026-04-23 00:01 42.06014 36.97587 35024 ft 545 kts 97°
2026-04-23 00:02 42.05451 37.07790 35038 ft 548 kts 97°
2026-04-23 00:02 42.04877 37.18024 35043 ft 549 kts 97°
2026-04-23 00:03 42.04296 37.28256 35037 ft 549 kts 97°
2026-04-23 00:03 42.03705 37.38490 35005 ft 549 kts 98°
2026-04-23 00:04 42.03104 37.48729 35040 ft 549 kts 98°
2026-04-23 00:04 42.02494 37.58960 35037 ft 549 kts 98°
2026-04-23 00:05 42.01875 37.69197 35036 ft 549 kts 98°
2026-04-23 00:05 42.01246 37.79432 35009 ft 549 kts 98°
2026-04-23 00:06 42.00609 37.89657 35030 ft 549 kts 98°
2026-04-23 00:06 41.99968 37.99803 35029 ft 548 kts 98°
2026-04-23 00:07 41.99314 38.10012 35021 ft 548 kts 98°
2026-04-23 00:07 41.98650 38.20219 35007 ft 548 kts 98°
2026-04-23 00:08 41.97979 38.30407 35017 ft 547 kts 98°
2026-04-23 00:08 41.97300 38.40575 35028 ft 546 kts 98°
2026-04-23 00:09 41.96611 38.50741 35016 ft 546 kts 98°
2026-04-23 00:09 41.95913 38.60911 35015 ft 546 kts 98°
2026-04-23 00:10 41.95209 38.71041 35017 ft 544 kts 98°
2026-04-23 00:10 41.94497 38.81164 35015 ft 544 kts 98°
2026-04-23 00:11 41.93776 38.91278 35014 ft 544 kts 98°
2026-04-23 00:11 41.93045 39.01400 35009 ft 544 kts 98°
2026-04-23 00:12 41.92306 39.11513 35011 ft 544 kts 98°
2026-04-23 00:12 41.91559 39.21616 35005 ft 544 kts 98°
2026-04-23 00:13 41.90803 39.31718 35010 ft 544 kts 98°
2026-04-23 00:13 41.90038 39.41816 34998 ft 543 kts 98°
2026-04-23 00:14 41.89396 39.50201 35004 ft 543 kts 98°
2026-04-23 00:14 41.88490 39.61911 35000 ft 543 kts 99°
2026-04-23 00:15 41.87700 39.71980 34996 ft 543 kts 99°
2026-04-23 00:15 41.86900 39.82044 34999 ft 543 kts 98°
2026-04-23 00:16 41.86224 39.90487 34996 ft 543 kts 98°
2026-04-23 00:16 41.85410 40.00548 34990 ft 543 kts 98°
2026-04-23 00:17 41.84586 40.10611 34991 ft 543 kts 99°
2026-04-23 00:17 41.83753 40.20674 34988 ft 543 kts 98°
2026-04-23 00:18 41.82919 40.30655 34987 ft 543 kts 98°
2026-04-23 00:18 41.82069 40.40706 34987 ft 543 kts 98°
2026-04-23 00:19 41.81211 40.50753 34983 ft 542 kts 99°
2026-04-23 00:19 41.80345 40.60792 34982 ft 542 kts 99°
2026-04-23 00:20 41.79527 40.70849 34980 ft 543 kts 96°
2026-04-23 00:20 41.79054 40.80957 34979 ft 544 kts 95°
2026-04-23 00:21 41.78642 40.91075 34979 ft 543 kts 95°
2026-04-23 00:21 41.78172 41.01164 34976 ft 542 kts 96°
2026-04-23 00:22 41.77660 41.11240 34977 ft 542 kts 96°
2026-04-23 00:22 41.77131 41.21305 34972 ft 542 kts 96°
2026-04-23 00:23 41.76594 41.31363 34979 ft 542 kts 96°
2026-04-23 00:23 41.76050 41.41430 34993 ft 541 kts 96°
2026-04-23 00:24 41.75498 41.51480 34987 ft 541 kts 96°
2026-04-23 00:24 41.74939 41.61526 34990 ft 541 kts 96°
2026-04-23 00:25 41.74370 41.71573 34988 ft 541 kts 96°
2026-04-23 00:25 41.73792 41.81622 34975 ft 541 kts 96°
2026-04-23 00:26 41.73206 41.91642 34983 ft 540 kts 96°
2026-04-23 00:26 41.72612 42.01587 34971 ft 539 kts 96°
2026-04-23 00:27 41.72013 42.11602 34940 ft 540 kts 96°
2026-04-23 00:27 41.71404 42.21613 34937 ft 540 kts 96°
2026-04-23 00:28 41.70785 42.31607 34923 ft 539 kts 96°
2026-04-23 00:28 41.70155 42.41605 34917 ft 539 kts 96°
2026-04-23 00:29 41.69518 42.51593 34900 ft 539 kts 96°
2026-04-23 00:29 41.68871 42.61588 34883 ft 539 kts 96°
2026-04-23 00:30 41.68217 42.71561 34892 ft 538 kts 97°
2026-04-23 00:30 41.67554 42.81526 34894 ft 537 kts 97°
2026-04-23 00:31 41.66888 42.91480 34891 ft 537 kts 97°
2026-04-23 00:31 41.66206 43.01430 34880 ft 537 kts 97°
2026-04-23 00:32 41.65516 43.11351 34894 ft 535 kts 97°
2026-04-23 00:32 41.64820 43.21255 34897 ft 534 kts 97°
2026-04-23 00:33 41.64120 43.31132 34883 ft 533 kts 97°
2026-04-23 00:33 41.63410 43.40997 34883 ft 533 kts 97°
2026-04-23 00:34 41.62692 43.50839 34879 ft 531 kts 97°
2026-04-23 00:34 41.61976 43.60656 34879 ft 530 kts 97°
2026-04-23 00:35 41.61248 43.70456 34877 ft 530 kts 97°
2026-04-23 00:35 41.60518 43.80182 34883 ft 530 kts 97°
2026-04-23 00:36 41.59778 43.89963 34879 ft 528 kts 97°
2026-04-23 00:36 41.59030 43.99715 34893 ft 528 kts 98°
2026-04-23 00:37 41.58274 44.09466 34904 ft 528 kts 98°
2026-04-23 00:37 41.57505 44.19206 34933 ft 527 kts 98°
2026-04-23 00:37 41.56832 44.23992 35153 ft 521 kts 108°
2026-04-23 00:38 41.55837 44.28615 35474 ft 516 kts 110°
2026-04-23 00:38 41.54770 44.33178 35688 ft 515 kts 111°
2026-04-23 00:38 41.53657 44.37724 35813 ft 515 kts 111°
2026-04-23 00:38 41.52525 44.42251 35970 ft 515 kts 111°
2026-04-23 00:39 41.51382 44.46786 36089 ft 515 kts 111°
2026-04-23 00:39 41.50241 44.51317 36218 ft 515 kts 111°
2026-04-23 00:39 41.49102 44.55847 36341 ft 515 kts 111°
2026-04-23 00:39 41.47966 44.60379 36452 ft 515 kts 111°
2026-04-23 00:40 41.46831 44.64910 36574 ft 515 kts 111°
2026-04-23 00:40 41.45696 44.69437 36695 ft 515 kts 111°
2026-04-23 00:40 41.44560 44.73966 36795 ft 515 kts 112°
2026-04-23 00:41 41.42277 44.83040 36900 ft 518 kts 112°
2026-04-23 00:41 41.39967 44.92176 36881 ft 522 kts 112°
2026-04-23 00:42 41.37642 45.01341 36877 ft 523 kts 112°
2026-04-23 00:42 41.35310 45.10507 36878 ft 523 kts 112°
2026-04-23 00:43 41.32970 45.19657 36865 ft 522 kts 112°
2026-04-23 00:43 41.30634 45.28746 36870 ft 523 kts 112°
2026-04-23 00:44 41.28271 45.37904 36861 ft 523 kts 112°
2026-04-23 00:44 41.25914 45.47014 36864 ft 520 kts 112°
2026-04-23 00:45 41.23556 45.56096 36861 ft 519 kts 112°
2026-04-23 00:45 41.21197 45.65146 36855 ft 518 kts 112°
2026-04-23 00:46 41.18832 45.74178 36862 ft 518 kts 112°
2026-04-23 00:46 41.16448 45.83203 36856 ft 518 kts 112°
2026-04-23 00:47 41.14054 45.92230 36860 ft 519 kts 112°
2026-04-23 00:47 41.11657 46.01251 36859 ft 519 kts 112°
2026-04-23 00:48 41.09253 46.10265 36859 ft 519 kts 112°
2026-04-23 00:48 41.06841 46.19281 36870 ft 520 kts 112°
2026-04-23 00:49 41.04419 46.28301 36871 ft 520 kts 113°
2026-04-23 00:49 41.01998 46.37320 36871 ft 520 kts 112°
2026-04-23 00:50 40.99591 46.46341 36867 ft 520 kts 112°
2026-04-23 00:50 40.97174 46.55365 36873 ft 520 kts 112°
2026-04-23 00:51 40.94745 46.64386 36867 ft 520 kts 112°
2026-04-23 00:51 40.92311 46.73398 36866 ft 521 kts 112°
2026-04-23 00:52 40.90904 46.82748 36860 ft 527 kts 93°
2026-04-23 00:52 40.91077 46.87587 36870 ft 529 kts 82°
2026-04-23 00:52 40.91748 46.92363 36864 ft 529 kts 78°
2026-04-23 00:53 40.93459 47.01843 36878 ft 530 kts 76°
2026-04-23 00:53 40.95272 47.11264 36879 ft 528 kts 76°
2026-04-23 00:54 40.97044 47.20681 36887 ft 527 kts 76°
2026-04-23 00:54 40.98775 47.30106 36890 ft 527 kts 77°
2026-04-23 00:55 41.00487 47.39536 36898 ft 526 kts 77°
2026-04-23 00:55 41.02191 47.48968 36902 ft 528 kts 77°
2026-04-23 00:56 41.03892 47.58422 36884 ft 528 kts 77°
2026-04-23 00:56 41.05589 47.67896 36897 ft 529 kts 77°
2026-04-23 00:57 41.07280 47.77394 36882 ft 531 kts 78°
2026-04-23 00:57 41.08969 47.86918 36874 ft 531 kts 78°
2026-04-23 00:58 41.10951 47.96337 36882 ft 532 kts 68°
2026-04-23 00:58 41.12607 48.00704 36879 ft 531 kts 57°
2026-04-23 00:58 41.14646 48.04808 36877 ft 532 kts 54°
2026-04-23 00:59 41.18977 48.12810 36875 ft 535 kts 52°
2026-04-23 00:59 41.23409 48.20756 36877 ft 535 kts 52°
2026-04-23 01:00 41.27825 48.28721 36881 ft 536 kts 53°
2026-04-23 01:00 41.32223 48.36734 36886 ft 536 kts 53°
2026-04-23 01:01 41.36606 48.44767 36879 ft 536 kts 53°
2026-04-23 01:01 41.40970 48.52791 36897 ft 534 kts 53°
2026-04-23 01:02 41.45323 48.60739 36898 ft 534 kts 52°
2026-04-23 01:02 41.49770 48.68669 36896 ft 534 kts 52°
2026-04-23 01:03 41.54199 48.76607 36894 ft 533 kts 54°
2026-04-23 01:03 41.58366 48.84791 36895 ft 533 kts 56°
2026-04-23 01:04 41.62435 48.93070 36889 ft 533 kts 56°
2026-04-23 01:04 41.68588 49.05461 36889 ft 533 kts 56°
2026-04-23 01:05 41.72040 49.12369 36889 ft 533 kts 56°
2026-04-23 01:05 41.76155 49.20614 36889 ft 531 kts 56°
2026-04-23 01:06 41.80222 49.28789 36884 ft 531 kts 56°
2026-04-23 01:06 41.84408 49.36930 36881 ft 530 kts 53°
2026-04-23 01:07 41.88811 49.44863 36875 ft 529 kts 52°
2026-04-23 01:07 41.93210 49.52790 36875 ft 529 kts 53°
2026-04-23 01:08 41.97561 49.60748 36879 ft 529 kts 53°
2026-04-23 01:08 42.01893 49.68745 36873 ft 528 kts 53°
2026-04-23 01:09 42.06209 49.76743 36870 ft 528 kts 53°
2026-04-23 01:09 42.10519 49.84747 36874 ft 528 kts 53°
2026-04-23 01:10 42.14826 49.92763 36877 ft 528 kts 53°
2026-04-23 01:10 42.19127 50.00788 36880 ft 528 kts 53°
2026-04-23 01:11 42.23427 50.08833 36878 ft 528 kts 53°
2026-04-23 01:11 42.27723 50.16892 36886 ft 529 kts 53°
2026-04-23 01:12 42.32016 50.24968 36892 ft 529 kts 53°
2026-04-23 01:12 42.36304 50.33056 36892 ft 529 kts 53°
2026-04-23 01:13 42.40586 50.41153 36900 ft 529 kts 53°
2026-04-23 01:13 42.44383 50.49663 36909 ft 529 kts 65°
2026-04-23 01:14 42.47335 50.58796 36904 ft 529 kts 68°
2026-04-23 01:14 42.50134 50.68020 36906 ft 529 kts 68°
2026-04-23 01:15 42.52913 50.77262 36911 ft 529 kts 68°
2026-04-23 01:15 42.55683 50.86444 36919 ft 529 kts 68°
2026-04-23 01:16 42.58474 50.95688 36917 ft 530 kts 68°
2026-04-23 01:16 42.61259 51.04938 36919 ft 530 kts 68°
2026-04-23 01:17 42.64037 51.14198 36928 ft 530 kts 68°
2026-04-23 01:17 42.66805 51.23464 36931 ft 530 kts 68°
2026-04-23 01:18 42.69570 51.32752 36928 ft 530 kts 68°
2026-04-23 01:18 42.72326 51.42043 36928 ft 530 kts 68°
2026-04-23 01:19 42.75074 51.51342 36917 ft 530 kts 68°
2026-04-23 01:19 42.77817 51.60654 36927 ft 530 kts 69°
2026-04-23 01:20 42.80553 51.69977 36920 ft 530 kts 69°
2026-04-23 01:20 42.83282 51.79314 36923 ft 530 kts 69°
2026-04-23 01:21 42.86003 51.88653 36927 ft 530 kts 69°
2026-04-23 01:21 42.88714 51.97995 36933 ft 530 kts 69°
2026-04-23 01:22 42.91417 52.07345 36942 ft 530 kts 69°
2026-04-23 01:22 42.94115 52.16710 36944 ft 530 kts 69°
2026-04-23 01:23 42.96805 52.26081 36945 ft 530 kts 69°
2026-04-23 01:23 42.99485 52.35454 36952 ft 530 kts 69°
2026-04-23 01:24 43.02160 52.44843 36961 ft 530 kts 69°
2026-04-23 01:24 43.04823 52.54229 36953 ft 530 kts 69°
2026-04-23 01:25 43.07480 52.63623 36958 ft 530 kts 69°
2026-04-23 01:25 43.10112 52.72967 36963 ft 530 kts 69°
2026-04-23 01:26 43.12753 52.82379 36965 ft 530 kts 69°
2026-04-23 01:26 43.15390 52.91812 36966 ft 530 kts 69°
2026-04-23 01:27 43.18021 53.01258 36973 ft 531 kts 69°
2026-04-23 01:27 43.20642 53.10706 36977 ft 531 kts 70°
2026-04-23 01:28 43.23257 53.20168 36976 ft 531 kts 70°
2026-04-23 01:28 43.25866 53.29644 36978 ft 531 kts 70°
2026-04-23 01:29 43.28466 53.39125 36972 ft 531 kts 70°
2026-04-23 01:29 43.31058 53.48610 36977 ft 531 kts 70°
2026-04-23 01:30 43.33641 53.58103 36982 ft 531 kts 70°
2026-04-23 01:30 43.36216 53.67601 36983 ft 531 kts 70°
2026-04-23 01:31 43.38785 53.77117 36972 ft 531 kts 70°
2026-04-23 01:31 43.41344 53.86629 36987 ft 530 kts 70°
2026-04-23 01:32 43.43895 53.96152 36988 ft 530 kts 70°
2026-04-23 01:32 43.46438 54.05681 36989 ft 530 kts 70°
2026-04-23 01:33 43.48971 54.15213 36988 ft 530 kts 70°
2026-04-23 01:33 43.51496 54.24749 36988 ft 530 kts 70°
2026-04-23 01:34 43.54014 54.34299 36988 ft 530 kts 70°
2026-04-23 01:34 43.56523 54.43852 36987 ft 530 kts 70°
2026-04-23 01:35 43.59010 54.53359 36989 ft 530 kts 70°
2026-04-23 01:35 43.61519 54.62989 36985 ft 530 kts 71°
2026-04-23 01:36 43.63992 54.72518 36992 ft 530 kts 71°
2026-04-23 01:36 43.66472 54.82112 36987 ft 530 kts 71°
2026-04-23 01:37 43.68940 54.91703 36988 ft 530 kts 71°
2026-04-23 01:37 43.71406 55.01321 36980 ft 530 kts 71°
2026-04-23 01:38 43.73859 55.10931 36989 ft 530 kts 71°
2026-04-23 01:38 43.76306 55.20556 36988 ft 530 kts 71°
2026-04-23 01:39 43.78746 55.30192 36987 ft 530 kts 71°
2026-04-23 01:39 43.81177 55.39831 36989 ft 530 kts 71°
2026-04-23 01:40 43.83598 55.49473 36993 ft 530 kts 71°
2026-04-23 01:40 43.86011 55.59121 36995 ft 530 kts 71°
2026-04-23 01:41 43.88416 55.68782 36992 ft 530 kts 71°
2026-04-23 01:41 43.90812 55.78442 36988 ft 530 kts 71°
2026-04-23 01:42 43.93201 55.88118 36990 ft 530 kts 71°
2026-04-23 01:42 43.95582 55.97799 36990 ft 530 kts 71°
2026-04-23 01:43 43.97954 56.07489 36995 ft 530 kts 71°
2026-04-23 01:43 44.00319 56.17189 36991 ft 530 kts 71°
2026-04-23 01:44 44.02675 56.26891 36995 ft 530 kts 72°
2026-04-23 01:44 44.05025 56.36614 36992 ft 530 kts 72°
2026-04-23 01:45 44.07350 56.46272 36995 ft 530 kts 72°
2026-04-23 01:45 44.09682 56.56005 36994 ft 530 kts 72°
2026-04-23 01:46 44.12008 56.65750 36991 ft 530 kts 72°
2026-04-23 01:46 44.14322 56.75492 36993 ft 531 kts 72°
2026-04-23 01:47 44.16631 56.85254 36992 ft 531 kts 72°
2026-04-23 01:47 44.18932 56.95022 36990 ft 531 kts 72°
2026-04-23 01:48 44.21225 57.04801 36987 ft 531 kts 72°
2026-04-23 01:48 44.23509 57.14584 36983 ft 531 kts 72°
2026-04-23 01:49 44.25785 57.24379 36986 ft 531 kts 72°
2026-04-23 01:49 44.28054 57.34185 36981 ft 531 kts 72°
2026-04-23 01:50 44.30313 57.43993 36984 ft 531 kts 72°
2026-04-23 01:50 44.32564 57.53809 36983 ft 531 kts 72°
2026-04-23 01:51 44.34808 57.63638 36977 ft 531 kts 73°
2026-04-23 01:51 44.37041 57.73465 36974 ft 531 kts 73°
2026-04-23 01:52 44.39269 57.83315 36970 ft 531 kts 73°
2026-04-23 01:52 44.41487 57.93164 36973 ft 531 kts 73°
2026-04-23 01:53 44.43325 58.01361 36971 ft 531 kts 73°
2026-04-23 01:53 44.45884 58.12824 36963 ft 531 kts 73°
2026-04-23 01:54 44.48077 58.22700 36965 ft 531 kts 73°
2026-04-23 01:54 44.49907 58.30971 36962 ft 531 kts 73°
2026-04-23 01:55 44.52085 58.40864 36953 ft 531 kts 73°
2026-04-23 01:55 44.54238 58.50688 36961 ft 531 kts 73°
2026-04-23 01:56 44.56396 58.60578 36947 ft 530 kts 73°
2026-04-23 01:56 44.58543 58.70463 36952 ft 530 kts 74°
2026-04-23 01:57 44.60680 58.80355 36952 ft 530 kts 74°
2026-04-23 01:57 44.62810 58.90257 36952 ft 530 kts 74°
2026-04-23 01:58 44.64930 59.00159 36955 ft 530 kts 74°
2026-04-23 01:58 44.67043 59.10077 36948 ft 530 kts 74°
2026-04-23 01:59 44.69148 59.20003 36953 ft 530 kts 74°
2026-04-23 01:59 44.71246 59.29945 36952 ft 530 kts 74°
2026-04-23 02:00 44.73333 59.39887 36955 ft 530 kts 75°
2026-04-23 02:00 44.75413 59.49837 36955 ft 530 kts 75°
2026-04-23 02:01 44.77485 59.59804 36952 ft 530 kts 75°
2026-04-23 02:01 44.79547 59.69767 36952 ft 530 kts 75°
2026-04-23 02:02 44.81600 59.79738 36953 ft 530 kts 75°
2026-04-23 02:02 44.83613 59.89561 36953 ft 530 kts 75°
2026-04-23 02:03 44.85647 59.99536 36957 ft 530 kts 75°
2026-04-23 02:03 44.87674 60.09526 36958 ft 530 kts 75°
2026-04-23 02:04 44.89692 60.19522 36955 ft 530 kts 75°
2026-04-23 02:04 44.91700 60.29519 36957 ft 530 kts 75°
2026-04-23 02:05 44.93698 60.39521 36957 ft 530 kts 75°
2026-04-23 02:05 44.95690 60.49539 36958 ft 530 kts 76°
2026-04-23 02:06 44.97673 60.59559 36961 ft 530 kts 76°
2026-04-23 02:06 44.99647 60.69595 36960 ft 530 kts 76°
2026-04-23 02:07 45.01613 60.79634 36956 ft 530 kts 76°
2026-04-23 02:07 45.03569 60.89677 36954 ft 530 kts 76°
2026-04-23 02:08 45.05505 60.99667 36955 ft 530 kts 76°
2026-04-23 02:08 45.07444 61.09725 36955 ft 530 kts 76°
2026-04-23 02:09 45.09375 61.19795 36962 ft 530 kts 76°
2026-04-23 02:09 45.11297 61.29865 36954 ft 530 kts 76°
2026-04-23 02:10 45.13207 61.39930 36963 ft 530 kts 76°
2026-04-23 02:10 45.15109 61.50011 36962 ft 530 kts 76°
2026-04-23 02:11 45.17003 61.60100 36961 ft 530 kts 76°
2026-04-23 02:11 45.18889 61.70195 36961 ft 530 kts 77°
2026-04-23 02:12 45.20764 61.80291 36960 ft 530 kts 77°
2026-04-23 02:12 45.22630 61.90395 36959 ft 530 kts 77°
2026-04-23 02:13 45.24488 62.00504 36953 ft 530 kts 77°
2026-04-23 02:13 45.26337 62.10623 36958 ft 530 kts 77°
2026-04-23 02:14 45.28177 62.20749 36958 ft 530 kts 77°
2026-04-23 02:14 45.30008 62.30882 36963 ft 530 kts 77°
2026-04-23 02:15 45.32739 62.46096 36963 ft 530 kts 77°
2026-04-23 02:16 45.34549 62.56254 36965 ft 530 kts 77°
2026-04-23 02:16 45.36349 62.66412 36959 ft 530 kts 77°
2026-04-23 02:17 45.38138 62.76563 36965 ft 530 kts 77°
2026-04-23 02:17 45.39924 62.86754 36963 ft 530 kts 78°
2026-04-23 02:18 45.41697 62.96933 36959 ft 530 kts 78°
2026-04-23 02:18 45.43450 63.07051 36959 ft 530 kts 78°
2026-04-23 02:19 45.45209 63.17261 36960 ft 531 kts 78°
2026-04-23 02:19 45.46957 63.27473 36954 ft 531 kts 78°
2026-04-23 02:20 45.48696 63.37687 36953 ft 531 kts 78°
2026-04-23 02:20 45.50429 63.47925 36953 ft 532 kts 78°
2026-04-23 02:21 45.52156 63.58186 36948 ft 532 kts 78°
2026-04-23 02:21 45.53872 63.68450 36951 ft 532 kts 78°
2026-04-23 02:22 45.55579 63.78718 36940 ft 532 kts 79°
2026-04-23 02:22 45.57280 63.89004 36941 ft 533 kts 79°
2026-04-23 02:23 45.58973 63.99313 36941 ft 534 kts 79°
2026-04-23 02:23 45.60658 64.09636 36941 ft 534 kts 79°
2026-04-23 02:24 45.62333 64.19959 36936 ft 534 kts 79°
2026-04-23 02:24 45.64002 64.30309 36942 ft 535 kts 79°
2026-04-23 02:25 45.65663 64.40674 36943 ft 535 kts 79°
2026-04-23 02:25 45.67305 64.50979 36936 ft 535 kts 79°
2026-04-23 02:26 45.68948 64.61358 36932 ft 536 kts 80°
2026-04-23 02:26 45.70583 64.71758 36931 ft 536 kts 80°
2026-04-23 02:27 45.72210 64.82169 36936 ft 536 kts 80°
2026-04-23 02:27 45.73828 64.92585 36916 ft 536 kts 80°
2026-04-23 02:28 45.75436 65.03008 36932 ft 537 kts 81°
2026-04-23 02:28 45.77036 65.13449 36931 ft 537 kts 81°
2026-04-23 02:29 45.78627 65.23896 36919 ft 537 kts 81°
2026-04-23 02:29 45.80207 65.34338 36931 ft 537 kts 81°
2026-04-23 02:30 45.81779 65.44800 36934 ft 536 kts 81°
2026-04-23 02:30 45.83341 65.55260 36920 ft 537 kts 81°
2026-04-23 02:31 45.84892 65.65724 36934 ft 537 kts 81°
2026-04-23 02:31 45.86436 65.76199 36926 ft 536 kts 81°
2026-04-23 02:32 45.87967 65.86669 36926 ft 536 kts 81°
2026-04-23 02:32 45.89490 65.97151 36920 ft 536 kts 81°
2026-04-23 02:33 45.91004 66.07637 36911 ft 536 kts 82°
2026-04-23 02:33 45.92507 66.18123 36920 ft 536 kts 82°
2026-04-23 02:34 45.94002 66.28626 36918 ft 536 kts 82°
2026-04-23 02:34 45.95475 66.39053 36917 ft 536 kts 82°
2026-04-23 02:35 45.96950 66.49558 36913 ft 537 kts 82°
2026-04-23 02:35 45.98416 66.60081 36908 ft 537 kts 82°
2026-04-23 02:36 45.99874 66.70623 36916 ft 538 kts 82°
2026-04-23 02:36 46.01324 66.81178 36914 ft 538 kts 82°
2026-04-23 02:37 46.02765 66.91743 36913 ft 539 kts 83°
2026-04-23 02:37 46.04198 67.02326 36914 ft 539 kts 83°
2026-04-23 02:38 46.05622 67.12919 36914 ft 539 kts 83°
2026-04-23 02:38 46.07034 67.23504 36906 ft 539 kts 83°
2026-04-23 02:39 46.08440 67.34121 36911 ft 540 kts 83°
2026-04-23 02:39 46.09838 67.44757 36909 ft 540 kts 83°
2026-04-23 02:40 46.11225 67.55393 36911 ft 540 kts 83°
2026-04-23 02:40 46.12593 67.65962 36911 ft 541 kts 83°
2026-04-23 02:41 46.13972 67.76694 36905 ft 541 kts 83°
2026-04-23 02:41 46.15330 67.87353 36907 ft 541 kts 83°
2026-04-23 02:42 46.16671 67.97952 36883 ft 541 kts 84°
2026-04-23 02:42 46.18010 68.08623 36903 ft 541 kts 84°
2026-04-23 02:43 46.19339 68.19301 36898 ft 540 kts 84°
2026-04-23 02:43 46.20658 68.29979 36901 ft 540 kts 84°
2026-04-23 02:44 46.21966 68.40660 36889 ft 540 kts 84°
2026-04-23 02:44 46.23045 68.49531 36894 ft 539 kts 84°
2026-04-23 02:45 46.24333 68.60198 36897 ft 539 kts 84°
2026-04-23 02:45 46.25609 68.70867 36894 ft 539 kts 84°
2026-04-23 02:46 46.26876 68.81540 36885 ft 539 kts 84°
2026-04-23 02:46 46.28132 68.92205 36884 ft 538 kts 84°
2026-04-23 02:47 46.29374 69.02843 36886 ft 537 kts 84°
2026-04-23 02:47 46.30610 69.13516 36882 ft 538 kts 84°
2026-04-23 02:48 46.31833 69.24178 36876 ft 537 kts 85°
2026-04-23 02:48 46.33048 69.34852 36877 ft 538 kts 85°
2026-04-23 02:49 46.34253 69.45532 36875 ft 538 kts 85°
2026-04-23 02:49 46.35446 69.56202 36864 ft 538 kts 85°
2026-04-23 02:50 46.36631 69.66896 36875 ft 537 kts 85°
2026-04-23 02:50 46.37805 69.77568 36870 ft 537 kts 85°
2026-04-23 02:51 46.38967 69.88237 36867 ft 537 kts 85°
2026-04-23 02:51 46.40121 69.98929 36867 ft 536 kts 85°
2026-04-23 02:52 46.41263 70.09598 36863 ft 535 kts 85°
2026-04-23 02:52 46.42393 70.20258 36862 ft 535 kts 85°
2026-04-23 02:53 46.43504 70.30847 36863 ft 535 kts 85°
2026-04-23 02:53 46.44613 70.41507 36858 ft 534 kts 85°
2026-04-23 02:54 46.45711 70.52157 36856 ft 534 kts 85°
2026-04-23 02:54 46.46799 70.62813 36858 ft 534 kts 85°
2026-04-23 02:55 46.47875 70.73453 36854 ft 534 kts 85°
2026-04-23 02:55 46.48944 70.84131 36854 ft 534 kts 85°
2026-04-23 02:56 46.50001 70.94789 36852 ft 534 kts 86°
2026-04-23 02:56 46.51049 71.05455 36853 ft 534 kts 86°
2026-04-23 02:57 46.52087 71.16128 36858 ft 534 kts 86°
2026-04-23 02:57 46.53115 71.26799 36854 ft 534 kts 86°
2026-04-23 02:58 46.54133 71.37475 36848 ft 534 kts 86°
2026-04-23 02:58 46.55140 71.48153 36845 ft 534 kts 86°
2026-04-23 02:59 46.56138 71.58833 36846 ft 534 kts 86°
2026-04-23 02:59 46.57127 71.69539 36841 ft 534 kts 86°
2026-04-23 03:00 46.58106 71.80238 36850 ft 534 kts 86°
2026-04-23 03:00 46.59068 71.90866 36845 ft 534 kts 86°
2026-04-23 03:01 46.60027 72.01581 36849 ft 534 kts 86°
2026-04-23 03:01 46.60976 72.12288 36845 ft 534 kts 86°
2026-04-23 03:02 46.61914 72.22996 36843 ft 534 kts 86°
2026-04-23 03:02 46.62842 72.33710 36828 ft 534 kts 86°
2026-04-23 03:03 46.63761 72.44430 36836 ft 534 kts 86°
2026-04-23 03:03 46.64671 72.55160 36836 ft 534 kts 86°
2026-04-23 03:04 46.65571 72.65899 36834 ft 534 kts 86°
2026-04-23 03:04 46.66459 72.76626 36815 ft 534 kts 86°
2026-04-23 03:05 46.67338 72.87378 36823 ft 535 kts 86°
2026-04-23 03:05 46.68208 72.98126 36824 ft 535 kts 86°
2026-04-23 03:06 46.69067 73.08880 36826 ft 535 kts 86°
2026-04-23 03:06 46.69917 73.19645 36826 ft 535 kts 86°
2026-04-23 03:07 46.70757 73.30408 36822 ft 535 kts 86°
2026-04-23 03:07 46.71580 73.41092 36823 ft 534 kts 87°
2026-04-23 03:08 46.72399 73.51862 36825 ft 534 kts 87°
2026-04-23 03:08 46.73208 73.62629 36822 ft 534 kts 87°
2026-04-23 03:09 46.74007 73.73400 36827 ft 534 kts 87°
2026-04-23 03:09 46.74795 73.84165 36822 ft 534 kts 87°
2026-04-23 03:10 46.75573 73.94941 36832 ft 534 kts 87°
2026-04-23 03:10 46.76341 74.05713 36824 ft 535 kts 87°
2026-04-23 03:11 46.77101 74.16521 36828 ft 535 kts 87°
2026-04-23 03:11 46.77850 74.27316 36829 ft 535 kts 87°
2026-04-23 03:12 46.78589 74.38118 36813 ft 535 kts 87°
2026-04-23 03:12 46.79318 74.48939 36821 ft 537 kts 87°
2026-04-23 03:13 46.80039 74.59783 36820 ft 537 kts 87°
2026-04-23 03:13 46.80751 74.70632 36820 ft 537 kts 88°
2026-04-23 03:14 46.81447 74.81409 36820 ft 537 kts 88°
2026-04-23 03:14 46.82137 74.92275 36823 ft 538 kts 88°
2026-04-23 03:15 46.82819 75.03159 36828 ft 538 kts 88°
2026-04-23 03:15 46.83490 75.14034 36833 ft 538 kts 88°
2026-04-23 03:16 46.84150 75.24922 36828 ft 540 kts 87°
2026-04-23 03:16 46.85127 75.41331 36822 ft 541 kts 88°
2026-04-23 03:17 46.85766 75.52282 36827 ft 541 kts 88°
2026-04-23 03:17 46.86394 75.63230 36823 ft 541 kts 88°
2026-04-23 03:18 46.87011 75.74173 36825 ft 540 kts 88°
2026-04-23 03:18 46.87617 75.85110 36827 ft 540 kts 88°
2026-04-23 03:19 46.88212 75.96055 36832 ft 540 kts 88°
2026-04-23 03:19 46.88797 76.06996 36828 ft 539 kts 88°
2026-04-23 03:20 46.89371 76.17930 36825 ft 539 kts 88°
2026-04-23 03:20 46.89935 76.28864 36827 ft 539 kts 88°
2026-04-23 03:21 46.90488 76.39798 36828 ft 539 kts 88°
2026-04-23 03:21 46.91031 76.50743 36824 ft 540 kts 88°
2026-04-23 03:22 46.91564 76.61699 36823 ft 540 kts 88°
2026-04-23 03:22 46.92088 76.72665 36823 ft 540 kts 88°
2026-04-23 03:23 46.92600 76.83623 36817 ft 540 kts 88°
2026-04-23 03:23 46.93102 76.94609 36827 ft 542 kts 88°
2026-04-23 03:24 46.93595 77.05608 36826 ft 542 kts 88°
2026-04-23 03:24 46.94078 77.16612 36828 ft 542 kts 88°
2026-04-23 03:25 46.94550 77.27618 36829 ft 542 kts 88°
2026-04-23 03:25 46.95011 77.38624 36833 ft 542 kts 88°
2026-04-23 03:26 46.95462 77.49632 36833 ft 542 kts 88°
2026-04-23 03:26 46.95899 77.60562 36835 ft 541 kts 88°
2026-04-23 03:27 46.96327 77.71557 36836 ft 541 kts 88°
2026-04-23 03:27 46.96746 77.82541 36842 ft 541 kts 88°
2026-04-23 03:28 46.97153 77.93530 36834 ft 541 kts 88°
2026-04-23 03:28 46.97551 78.04526 36825 ft 541 kts 88°
2026-04-23 03:29 46.97937 78.15529 36833 ft 541 kts 88°
2026-04-23 03:29 46.98314 78.26546 36846 ft 542 kts 89°
2026-04-23 03:30 46.98681 78.37566 36848 ft 542 kts 89°
2026-04-23 03:30 46.99036 78.48585 36832 ft 542 kts 88°
2026-04-23 03:31 46.99381 78.59601 36852 ft 542 kts 89°
2026-04-23 03:31 46.99716 78.70612 36856 ft 541 kts 89°
2026-04-23 03:32 47.00040 78.81627 36855 ft 541 kts 89°
2026-04-23 03:32 47.00352 78.92646 36854 ft 541 kts 88°
2026-04-23 03:33 47.00655 79.03666 36848 ft 541 kts 89°
2026-04-23 03:33 47.00899 79.12817 36844 ft 541 kts 89°
2026-04-23 03:34 47.01182 79.23829 36847 ft 541 kts 89°
2026-04-23 03:34 47.01454 79.34850 36842 ft 540 kts 89°
2026-04-23 03:35 47.01716 79.45848 36839 ft 540 kts 89°
2026-04-23 03:35 47.01967 79.56833 36840 ft 540 kts 89°
2026-04-23 03:36 47.02207 79.67818 36839 ft 540 kts 89°
2026-04-23 03:36 47.02436 79.78810 36840 ft 539 kts 89°
2026-04-23 03:37 47.02656 79.89791 36840 ft 539 kts 89°
2026-04-23 03:37 47.02865 80.00777 36840 ft 539 kts 89°
2026-04-23 03:38 47.03063 80.11751 36837 ft 539 kts 89°
2026-04-23 03:38 47.03250 80.22733 36838 ft 538 kts 89°
2026-04-23 03:39 47.03426 80.33638 36839 ft 539 kts 89°
2026-04-23 03:39 47.03592 80.44597 36840 ft 539 kts 89°
2026-04-23 03:40 47.03749 80.55589 36840 ft 538 kts 89°
2026-04-23 03:40 47.03894 80.66552 36840 ft 538 kts 89°
2026-04-23 03:41 47.04029 80.77504 36843 ft 537 kts 89°
2026-04-23 03:41 47.04153 80.88458 36856 ft 537 kts 89°
2026-04-23 03:42 47.04212 80.93930 37072 ft 536 kts 89°
2026-04-23 03:42 47.04238 80.99372 37362 ft 533 kts 92°
2026-04-23 03:42 47.03951 81.04774 37600 ft 531 kts 96°
2026-04-23 03:42 47.03550 81.10148 37784 ft 529 kts 97°
2026-04-23 03:43 47.03104 81.15493 37978 ft 528 kts 97°
2026-04-23 03:43 47.02634 81.20832 38130 ft 528 kts 98°
2026-04-23 03:43 47.02154 81.26165 38269 ft 528 kts 98°
2026-04-23 03:43 47.01672 81.31499 38400 ft 528 kts 98°
2026-04-23 03:44 47.01190 81.36822 38514 ft 527 kts 98°
2026-04-23 03:44 47.00709 81.42146 38612 ft 527 kts 98°
2026-04-23 03:44 46.99746 81.52794 38787 ft 527 kts 98°
2026-04-23 03:45 46.98775 81.63455 38846 ft 530 kts 98°
2026-04-23 03:45 46.97789 81.74181 38845 ft 532 kts 98°
2026-04-23 03:46 46.96791 81.84903 38851 ft 531 kts 98°
2026-04-23 03:46 46.95787 81.95613 38851 ft 531 kts 98°
2026-04-23 03:47 46.94772 82.06251 38857 ft 531 kts 98°
2026-04-23 03:47 46.93732 82.16951 38865 ft 531 kts 98°
2026-04-23 03:48 46.92684 82.27650 38864 ft 531 kts 98°
2026-04-23 03:48 46.91627 82.38356 38873 ft 531 kts 98°
2026-04-23 03:49 46.90562 82.49042 38881 ft 531 kts 98°
2026-04-23 03:49 46.89487 82.59736 38875 ft 531 kts 98°
2026-04-23 03:50 46.88401 82.70420 38878 ft 532 kts 98°
2026-04-23 03:50 46.87305 82.81107 38874 ft 532 kts 98°
2026-04-23 03:51 46.85191 82.91408 38875 ft 529 kts 118°
2026-04-23 03:51 46.81574 83.00744 38876 ft 528 kts 123°
2026-04-23 03:52 46.77683 83.09838 38875 ft 528 kts 124°
2026-04-23 03:52 46.73754 83.18908 38870 ft 530 kts 124°
2026-04-23 03:53 46.69839 83.28002 38870 ft 530 kts 124°
2026-04-23 03:53 46.65957 83.37044 38871 ft 530 kts 124°
2026-04-23 03:54 46.61771 83.45928 38865 ft 528 kts 129°
2026-04-23 03:54 46.57368 83.54388 38861 ft 528 kts 129°
2026-04-23 03:55 46.52949 83.62914 38859 ft 529 kts 128°
2026-04-23 03:55 46.48568 83.71498 38865 ft 529 kts 128°
2026-04-23 03:56 46.44201 83.80094 38862 ft 529 kts 128°
2026-04-23 03:56 46.39833 83.88673 38855 ft 529 kts 128°
2026-04-23 03:57 46.35457 83.97235 38878 ft 528 kts 128°
2026-04-23 03:57 46.31075 84.05780 38885 ft 530 kts 128°
2026-04-23 03:58 46.26673 84.14348 38903 ft 531 kts 128°
2026-04-23 03:58 46.22251 84.22899 38890 ft 531 kts 129°
2026-04-23 03:59 46.17809 84.31420 38921 ft 531 kts 129°
2026-04-23 03:59 46.13368 84.39918 38923 ft 531 kts 129°
2026-04-23 04:00 46.08923 84.48409 38926 ft 532 kts 128°
2026-04-23 04:00 46.04455 84.56922 38922 ft 533 kts 128°
2026-04-23 04:01 45.99983 84.65418 38919 ft 532 kts 129°
2026-04-23 04:01 45.95509 84.73892 38920 ft 532 kts 129°
2026-04-23 04:02 45.91031 84.82348 38919 ft 532 kts 129°
2026-04-23 04:02 45.86544 84.90795 38919 ft 532 kts 129°
2026-04-23 04:03 45.82047 84.99236 38915 ft 533 kts 129°
2026-04-23 04:03 45.77534 85.07680 38918 ft 533 kts 129°
2026-04-23 04:04 45.73017 85.16106 38914 ft 533 kts 129°
2026-04-23 04:04 45.68497 85.24520 38914 ft 533 kts 129°
2026-04-23 04:05 45.64026 85.32889 38922 ft 533 kts 128°
2026-04-23 04:05 45.59523 85.41319 38911 ft 534 kts 128°
2026-04-23 04:06 45.55003 85.49746 38913 ft 535 kts 129°
2026-04-23 04:06 45.50475 85.58156 38908 ft 535 kts 129°
2026-04-23 04:07 45.45941 85.66551 38909 ft 535 kts 129°
2026-04-23 04:07 45.41398 85.74937 38912 ft 535 kts 129°
2026-04-23 04:08 45.36852 85.83304 38910 ft 535 kts 129°
2026-04-23 04:08 45.32302 85.91654 38911 ft 535 kts 129°
2026-04-23 04:09 45.27738 86.00007 38907 ft 535 kts 129°
2026-04-23 04:09 45.23169 86.08341 38907 ft 535 kts 129°
2026-04-23 04:10 45.18594 86.16663 38919 ft 535 kts 129°
2026-04-23 04:10 45.14010 86.24976 38913 ft 536 kts 129°
2026-04-23 04:11 45.09418 86.33282 38912 ft 536 kts 129°
2026-04-23 04:11 45.04819 86.41574 38914 ft 536 kts 129°
2026-04-23 04:12 45.00214 86.49854 38923 ft 536 kts 129°
2026-04-23 04:12 44.95602 86.58122 38923 ft 536 kts 129°
2026-04-23 04:13 44.90982 86.66382 38914 ft 537 kts 129°
2026-04-23 04:13 44.86344 86.74648 38927 ft 537 kts 129°
2026-04-23 04:14 44.81698 86.82901 38933 ft 537 kts 130°
2026-04-23 04:14 44.77000 86.91075 38929 ft 537 kts 130°
2026-04-23 04:15 44.72271 86.99219 38932 ft 538 kts 130°
2026-04-23 04:16 44.65179 87.11477 38938 ft 539 kts 130°
2026-04-23 04:16 44.60478 87.19596 38938 ft 539 kts 130°
2026-04-23 04:17 44.55740 87.27757 38932 ft 540 kts 130°
2026-04-23 04:17 44.51081 87.36019 38943 ft 541 kts 128°
2026-04-23 04:18 44.46544 87.44437 38940 ft 541 kts 128°
2026-04-23 04:18 44.42002 87.52833 38942 ft 542 kts 128°
2026-04-23 04:19 44.37422 87.61205 38938 ft 542 kts 128°
2026-04-23 04:19 44.32824 87.69559 38941 ft 543 kts 128°
2026-04-23 04:20 44.28269 87.77982 38937 ft 544 kts 127°
2026-04-23 04:20 44.23740 87.86441 38940 ft 544 kts 127°
2026-04-23 04:21 44.20082 87.95618 38942 ft 542 kts 107°
2026-04-23 04:21 44.19119 88.00667 38949 ft 538 kts 96°
2026-04-23 04:21 44.18832 88.05826 38962 ft 531 kts 84°
2026-04-23 04:22 44.19844 88.15913 38959 ft 524 kts 73°
2026-04-23 04:22 44.21356 88.25851 38975 ft 524 kts 72°
2026-04-23 04:23 44.22897 88.35775 38955 ft 524 kts 72°
2026-04-23 04:23 44.24379 88.45654 38954 ft 524 kts 73°
2026-04-23 04:24 44.25600 88.53999 38959 ft 525 kts 72°
2026-04-23 04:24 44.27280 88.65600 38950 ft 525 kts 73°
2026-04-23 04:25 44.28717 88.75592 38951 ft 525 kts 73°
2026-04-23 04:25 44.29914 88.83960 38946 ft 525 kts 73°
2026-04-23 04:26 44.31338 88.93967 38945 ft 527 kts 72°
2026-04-23 04:26 44.32750 89.03945 38944 ft 527 kts 73°
2026-04-23 04:27 44.34161 89.13996 38941 ft 527 kts 73°
2026-04-23 04:27 44.35563 89.24054 38964 ft 527 kts 73°
2026-04-23 04:28 44.37659 89.39200 38938 ft 530 kts 73°
2026-04-23 04:28 44.39045 89.49316 38939 ft 531 kts 73°
2026-04-23 04:29 44.40425 89.59458 38941 ft 531 kts 73°
2026-04-23 04:29 44.41037 89.69818 38940 ft 543 kts 90°
2026-04-23 04:30 44.40451 89.75057 38942 ft 548 kts 101°
2026-04-23 04:30 44.39498 89.80227 38937 ft 550 kts 103°
2026-04-23 04:30 44.37294 89.90481 38938 ft 552 kts 104°
2026-04-23 04:31 44.34989 90.00719 38934 ft 552 kts 104°
2026-04-23 04:31 44.32708 90.10962 38938 ft 552 kts 104°
2026-04-23 04:32 44.30447 90.21211 38942 ft 552 kts 104°
2026-04-23 04:32 44.28185 90.31454 38942 ft 552 kts 104°
2026-04-23 04:33 44.25912 90.41695 38957 ft 553 kts 104°
2026-04-23 04:33 44.23625 90.51947 38942 ft 554 kts 104°
2026-04-23 04:34 44.21341 90.62134 38945 ft 554 kts 104°
2026-04-23 04:34 44.19032 90.72383 38949 ft 554 kts 104°
2026-04-23 04:35 44.16712 90.82623 38959 ft 554 kts 104°
2026-04-23 04:35 44.14383 90.92864 38958 ft 555 kts 104°
2026-04-23 04:36 44.12045 91.03096 38958 ft 555 kts 104°
2026-04-23 04:36 44.09702 91.13332 38959 ft 555 kts 104°
2026-04-23 04:37 44.07345 91.23544 38966 ft 555 kts 104°
2026-04-23 04:37 44.04980 91.33749 38969 ft 554 kts 104°
2026-04-23 04:38 44.02612 91.43935 38974 ft 555 kts 104°
2026-04-23 04:38 44.00215 91.54135 38994 ft 555 kts 104°
2026-04-23 04:39 43.97797 91.64296 38983 ft 554 kts 104°
2026-04-23 04:39 43.95374 91.74445 38989 ft 554 kts 104°
2026-04-23 04:40 43.92947 91.84591 38994 ft 554 kts 104°
2026-04-23 04:40 43.90511 91.94729 39006 ft 554 kts 104°
2026-04-23 04:41 43.88070 92.04836 38997 ft 553 kts 104°
2026-04-23 04:41 43.85624 92.14928 39000 ft 553 kts 104°
2026-04-23 04:42 43.83166 92.25022 38996 ft 553 kts 104°
2026-04-23 04:42 43.80700 92.35098 38991 ft 552 kts 104°
2026-04-23 04:43 43.78247 92.45085 38990 ft 552 kts 104°
2026-04-23 04:43 43.75765 92.55143 38992 ft 552 kts 104°
2026-04-23 04:44 43.73276 92.65185 38988 ft 553 kts 104°
2026-04-23 04:44 43.70778 92.75221 38986 ft 550 kts 105°
2026-04-23 04:45 43.68280 92.85207 38985 ft 550 kts 105°
2026-04-23 04:45 43.65777 92.95176 38991 ft 550 kts 105°
2026-04-23 04:46 43.63301 93.05154 38990 ft 549 kts 104°
2026-04-23 04:46 43.60927 93.15145 38996 ft 546 kts 104°
2026-04-23 04:47 43.58564 93.25091 39002 ft 545 kts 104°
2026-04-23 04:47 43.56182 93.35012 39000 ft 546 kts 104°
2026-04-23 04:48 43.53790 93.44894 38987 ft 547 kts 104°
2026-04-23 04:48 43.51370 93.54834 38988 ft 547 kts 104°
2026-04-23 04:49 43.48943 93.64758 38986 ft 547 kts 104°
2026-04-23 04:49 43.46506 93.74684 38989 ft 547 kts 104°
2026-04-23 04:50 43.44063 93.84595 38984 ft 546 kts 105°
2026-04-23 04:50 43.41618 93.94468 38986 ft 545 kts 105°
2026-04-23 04:51 43.39169 94.04320 38984 ft 544 kts 105°
2026-04-23 04:51 43.36712 94.14159 38977 ft 544 kts 105°
2026-04-23 04:52 43.34248 94.23985 38982 ft 544 kts 105°
2026-04-23 04:52 43.31775 94.33807 38982 ft 544 kts 105°
2026-04-23 04:53 43.29292 94.43622 38968 ft 544 kts 105°
2026-04-23 04:53 43.26800 94.53436 38972 ft 544 kts 105°
2026-04-23 04:54 43.24303 94.63228 38969 ft 543 kts 105°
2026-04-23 04:54 43.21806 94.72973 38946 ft 541 kts 105°
2026-04-23 04:55 43.19308 94.82689 38947 ft 541 kts 106°
2026-04-23 04:55 43.16801 94.92400 38927 ft 541 kts 106°
2026-04-23 04:56 43.14160 95.02036 38931 ft 541 kts 113°
2026-04-23 04:56 43.09898 95.10496 38917 ft 543 kts 135°
2026-04-23 04:57 43.03987 95.16884 38922 ft 543 kts 146°
2026-04-23 04:57 42.97722 95.22677 38912 ft 543 kts 147°
2026-04-23 04:58 42.91433 95.28394 38912 ft 543 kts 147°
2026-04-23 04:58 42.85156 95.34156 38930 ft 544 kts 147°
2026-04-23 04:59 42.78908 95.39924 38908 ft 542 kts 147°
2026-04-23 04:59 42.72669 95.45681 38905 ft 542 kts 147°
2026-04-23 05:00 42.66424 95.51428 38906 ft 543 kts 147°
2026-04-23 05:00 42.60152 95.57183 38909 ft 545 kts 147°
2026-04-23 05:01 42.53905 95.62899 38904 ft 545 kts 147°
2026-04-23 05:01 42.47617 95.68640 38906 ft 545 kts 147°
2026-04-23 05:02 42.41330 95.74366 38914 ft 544 kts 147°
2026-04-23 05:02 42.35069 95.80089 38920 ft 543 kts 147°
2026-04-23 05:03 42.28850 95.85864 38920 ft 542 kts 146°
2026-04-23 05:03 42.22630 95.91636 38911 ft 542 kts 146°
2026-04-23 05:04 42.16404 95.97386 38931 ft 542 kts 147°
2026-04-23 05:04 42.10174 96.03116 38937 ft 542 kts 147°
2026-04-23 05:05 42.03936 96.08843 38945 ft 542 kts 147°
2026-04-23 05:05 41.97700 96.14555 38936 ft 543 kts 147°
2026-04-23 05:06 41.92043 96.21239 38930 ft 543 kts 128°
2026-04-23 05:06 41.89911 96.25395 38931 ft 540 kts 116°
2026-04-23 05:06 41.88389 96.29975 38933 ft 535 kts 105°
2026-04-23 05:07 41.87536 96.34798 38931 ft 529 kts 93°
2026-04-23 05:07 41.87307 96.39690 38930 ft 525 kts 86°
2026-04-23 05:07 41.87401 96.49484 38939 ft 524 kts 83°
2026-04-23 05:08 41.87629 96.59240 38923 ft 523 kts 83°
2026-04-23 05:08 41.87815 96.68998 38923 ft 523 kts 84°
2026-04-23 05:09 41.87956 96.78764 38916 ft 523 kts 84°
2026-04-23 05:09 41.88075 96.88526 38914 ft 523 kts 84°
2026-04-23 05:10 41.88185 96.98283 38911 ft 523 kts 84°
2026-04-23 05:10 41.88289 97.08029 38905 ft 522 kts 84°
2026-04-23 05:11 41.88386 97.17710 38895 ft 522 kts 85°
2026-04-23 05:11 41.88474 97.27464 38892 ft 523 kts 85°
2026-04-23 05:12 41.88554 97.37216 38884 ft 523 kts 85°
2026-04-23 05:12 41.88626 97.46962 38884 ft 523 kts 85°
2026-04-23 05:13 41.88690 97.56716 38882 ft 523 kts 85°
2026-04-23 05:14 41.88770 97.71347 38872 ft 523 kts 85°
2026-04-23 05:14 41.88813 97.81103 38866 ft 523 kts 85°
2026-04-23 05:15 41.88843 97.89210 38867 ft 523 kts 85°
2026-04-23 05:15 41.88871 97.98971 38876 ft 523 kts 85°
2026-04-23 05:16 41.88891 98.08733 38859 ft 524 kts 85°
2026-04-23 05:16 41.88902 98.18510 38860 ft 524 kts 86°
2026-04-23 05:17 41.88905 98.28286 38851 ft 524 kts 86°
2026-04-23 05:17 41.88900 98.38052 38849 ft 524 kts 86°
2026-04-23 05:18 41.88887 98.47826 38840 ft 523 kts 86°
2026-04-23 05:18 41.88865 98.57598 38837 ft 523 kts 86°
2026-04-23 05:19 41.88835 98.67354 38838 ft 523 kts 86°
2026-04-23 05:19 41.88798 98.77062 38834 ft 523 kts 86°
2026-04-23 05:20 41.88751 98.86811 38820 ft 522 kts 86°
2026-04-23 05:20 41.88696 98.96556 38814 ft 522 kts 86°
2026-04-23 05:21 41.88634 99.06301 38820 ft 522 kts 86°
2026-04-23 05:21 41.88562 99.16048 38810 ft 522 kts 87°
2026-04-23 05:22 41.88483 99.25794 38799 ft 522 kts 87°
2026-04-23 05:22 41.88396 99.35531 38799 ft 522 kts 87°
2026-04-23 05:23 41.88300 99.45274 38802 ft 522 kts 87°
2026-04-23 05:23 41.88197 99.55011 38797 ft 522 kts 88°
2026-04-23 05:24 41.88084 99.64758 38791 ft 522 kts 88°
2026-04-23 05:24 41.87964 99.74497 38793 ft 522 kts 88°
2026-04-23 05:25 41.87836 99.84166 38802 ft 522 kts 88°
2026-04-23 05:25 41.87699 99.93901 38796 ft 522 kts 88°
2026-04-23 05:26 41.87554 100.03631 38796 ft 521 kts 88°
2026-04-23 05:26 41.87401 100.13355 38795 ft 521 kts 88°
2026-04-23 05:27 41.87240 100.23086 38800 ft 521 kts 89°
2026-04-23 05:27 41.87071 100.32798 38793 ft 521 kts 89°
2026-04-23 05:28 41.86893 100.42518 38790 ft 521 kts 89°
2026-04-23 05:28 41.86708 100.52225 38797 ft 521 kts 89°
2026-04-23 05:29 41.86514 100.61943 38793 ft 521 kts 89°
2026-04-23 05:29 41.86312 100.71650 38782 ft 520 kts 89°
2026-04-23 05:30 41.86102 100.81349 38792 ft 520 kts 89°
2026-04-23 05:30 41.85884 100.91050 38788 ft 520 kts 89°
2026-04-23 05:31 41.85658 101.00759 38782 ft 521 kts 89°
2026-04-23 05:31 41.85423 101.10462 38778 ft 521 kts 89°
2026-04-23 05:32 41.85067 101.20095 38774 ft 522 kts 96°
2026-04-23 05:32 41.83249 101.29534 38775 ft 524 kts 107°
2026-04-23 05:33 41.80794 101.38744 38776 ft 524 kts 109°
2026-04-23 05:33 41.78236 101.47892 38766 ft 524 kts 110°
2026-04-23 05:34 41.75684 101.57039 38765 ft 524 kts 109°
2026-04-23 05:34 41.73148 101.66186 38760 ft 524 kts 109°
2026-04-23 05:35 41.70617 101.75312 38763 ft 523 kts 110°
2026-04-23 05:35 41.68079 101.84433 38762 ft 522 kts 110°
2026-04-23 05:36 41.65536 101.93537 38763 ft 522 kts 110°
2026-04-23 05:36 41.62987 102.02624 38764 ft 522 kts 110°
2026-04-23 05:37 41.60432 102.11708 38756 ft 521 kts 110°
2026-04-23 05:37 41.57892 102.20698 38758 ft 520 kts 110°
2026-04-23 05:38 41.55330 102.29735 38757 ft 520 kts 110°
2026-04-23 05:38 41.52761 102.38763 38752 ft 520 kts 110°
2026-04-23 05:39 41.50185 102.47787 38755 ft 520 kts 110°
2026-04-23 05:39 41.47607 102.56786 38753 ft 519 kts 111°
2026-04-23 05:40 41.45023 102.65771 38745 ft 520 kts 111°
2026-04-23 05:40 41.42432 102.74768 38746 ft 520 kts 111°
2026-04-23 05:41 41.39849 102.83758 38748 ft 519 kts 111°
2026-04-23 05:41 41.37266 102.92730 38749 ft 519 kts 111°
2026-04-23 05:42 41.34683 103.01691 38749 ft 519 kts 110°
2026-04-23 05:42 41.32188 103.10694 38747 ft 519 kts 110°
2026-04-23 05:43 41.29718 103.19709 38747 ft 518 kts 110°
2026-04-23 05:43 41.27231 103.28706 38747 ft 518 kts 110°
2026-04-23 05:44 41.24728 103.37686 38747 ft 518 kts 110°
2026-04-23 05:44 41.22232 103.46598 38750 ft 518 kts 110°
2026-04-23 05:45 41.19714 103.55559 38749 ft 518 kts 110°
2026-04-23 05:45 41.17188 103.64515 38733 ft 518 kts 110°
2026-04-23 05:46 41.14657 103.73462 38746 ft 518 kts 110°
2026-04-23 05:46 41.12116 103.82408 38741 ft 518 kts 111°
2026-04-23 05:47 41.09568 103.91351 38751 ft 518 kts 111°
2026-04-23 05:47 41.07016 104.00275 38751 ft 518 kts 111°
2026-04-23 05:48 41.04460 104.09181 38756 ft 518 kts 111°
2026-04-23 05:48 41.01895 104.18093 38754 ft 517 kts 111°
2026-04-23 05:49 40.99324 104.26991 38755 ft 517 kts 111°
2026-04-23 05:49 40.96813 104.35891 38755 ft 517 kts 109°
2026-04-23 05:50 40.94650 104.44974 38764 ft 517 kts 107°
2026-04-23 05:50 40.92557 104.54062 38765 ft 517 kts 107°
2026-04-23 05:51 40.90401 104.63151 38763 ft 517 kts 108°
2026-04-23 05:51 40.88207 104.72201 38767 ft 517 kts 108°
2026-04-23 05:52 40.85997 104.81244 38766 ft 517 kts 108°
2026-04-23 05:52 40.83782 104.90277 38766 ft 517 kts 108°
2026-04-23 05:53 40.81561 104.99305 38763 ft 517 kts 108°
2026-04-23 05:53 40.79335 105.08323 38763 ft 517 kts 108°
2026-04-23 05:54 40.77103 105.17333 38763 ft 517 kts 108°
2026-04-23 05:54 40.74863 105.26341 38774 ft 517 kts 108°
2026-04-23 05:55 40.72616 105.35341 38764 ft 517 kts 108°
2026-04-23 05:55 40.70378 105.44271 38772 ft 516 kts 108°
2026-04-23 05:56 40.68117 105.53258 38771 ft 516 kts 108°
2026-04-23 05:56 40.65852 105.62232 38771 ft 517 kts 108°
2026-04-23 05:57 40.63578 105.71204 38773 ft 516 kts 108°
2026-04-23 05:57 40.61299 105.80162 38776 ft 516 kts 108°
2026-04-23 05:58 40.59015 105.89108 38784 ft 516 kts 108°
2026-04-23 05:58 40.56723 105.98050 38774 ft 516 kts 108°
2026-04-23 05:59 40.54428 106.06974 38766 ft 515 kts 108°
2026-04-23 05:59 40.52124 106.15896 38767 ft 515 kts 108°
2026-04-23 06:00 40.49814 106.24804 38759 ft 515 kts 109°
2026-04-23 06:00 40.47498 106.33699 38762 ft 515 kts 109°
2026-04-23 06:01 40.45179 106.42596 38762 ft 515 kts 109°
2026-04-23 06:01 40.42870 106.51417 38757 ft 514 kts 109°
2026-04-23 06:02 40.40541 106.60279 38757 ft 514 kts 109°
2026-04-23 06:02 40.38202 106.69144 38763 ft 514 kts 109°
2026-04-23 06:03 40.35858 106.77994 38763 ft 514 kts 109°
2026-04-23 06:03 40.33540 106.86719 38763 ft 513 kts 109°
2026-04-23 06:04 40.31743 106.95725 38772 ft 512 kts 95°
2026-04-23 06:04 40.31978 107.04989 38773 ft 508 kts 80°
2026-04-23 06:05 40.33051 107.14132 38766 ft 507 kts 78°
2026-04-23 06:05 40.34227 107.23242 38766 ft 507 kts 78°
2026-04-23 06:06 40.35373 107.32342 38768 ft 507 kts 79°
2026-04-23 06:06 40.36488 107.41475 38764 ft 507 kts 79°
2026-04-23 06:07 40.37585 107.50600 38763 ft 506 kts 79°
2026-04-23 06:07 40.38673 107.59713 38762 ft 506 kts 79°
2026-04-23 06:08 40.39754 107.68827 38764 ft 506 kts 79°
2026-04-23 06:08 40.40830 107.77946 38762 ft 506 kts 79°
2026-04-23 06:09 40.41889 107.86997 38757 ft 505 kts 79°
2026-04-23 06:09 40.42949 107.96110 38760 ft 505 kts 79°
2026-04-23 06:10 40.43835 108.03746 38762 ft 505 kts 79°
2026-04-23 06:10 40.44880 108.12799 38764 ft 505 kts 79°
2026-04-23 06:11 40.45924 108.21909 38760 ft 505 kts 79°
2026-04-23 06:11 40.46969 108.31100 38760 ft 505 kts 79°
2026-04-23 06:12 40.47872 108.39093 38758 ft 505 kts 79°
2026-04-23 06:12 40.49397 108.52713 38761 ft 504 kts 79°
2026-04-23 06:13 40.50409 108.61823 38757 ft 504 kts 79°
2026-04-23 06:13 40.51415 108.70954 38757 ft 504 kts 79°
2026-04-23 06:14 40.52413 108.80078 38763 ft 504 kts 79°
2026-04-23 06:14 40.53401 108.89187 38761 ft 503 kts 79°
2026-04-23 06:15 40.54382 108.98292 38758 ft 503 kts 79°
2026-04-23 06:15 40.55356 109.07402 38765 ft 503 kts 80°
2026-04-23 06:16 40.56322 109.16510 38766 ft 502 kts 80°
2026-04-23 06:16 40.57279 109.25598 38769 ft 502 kts 80°
2026-04-23 06:17 40.58230 109.34701 38768 ft 502 kts 80°
2026-04-23 06:17 40.59173 109.43807 38777 ft 502 kts 80°
2026-04-23 06:18 40.60111 109.52921 38781 ft 502 kts 80°
2026-04-23 06:18 40.61038 109.62012 38780 ft 501 kts 80°
2026-04-23 06:19 40.61959 109.71110 38789 ft 501 kts 80°
2026-04-23 06:19 40.62871 109.80198 38796 ft 501 kts 80°
2026-04-23 06:20 40.63777 109.89302 38793 ft 501 kts 80°
2026-04-23 06:20 40.64565 109.98409 38808 ft 503 kts 86°
2026-04-23 06:21 40.64660 110.07616 38807 ft 503 kts 88°
2026-04-23 06:21 40.64617 110.16775 38806 ft 503 kts 88°
2026-04-23 06:22 40.64545 110.25989 38821 ft 503 kts 88°
2026-04-23 06:22 40.64476 110.35199 38829 ft 503 kts 88°
2026-04-23 06:23 40.64407 110.44414 38826 ft 503 kts 88°
2026-04-23 06:23 40.64336 110.53626 38838 ft 503 kts 88°
2026-04-23 06:24 40.64256 110.62824 38838 ft 502 kts 89°
2026-04-23 06:24 40.64168 110.72029 38844 ft 502 kts 89°
2026-04-23 06:25 40.64073 110.81230 38847 ft 503 kts 89°
2026-04-23 06:25 40.63971 110.90427 38854 ft 502 kts 89°
2026-04-23 06:26 40.63862 110.99627 38851 ft 502 kts 89°
2026-04-23 06:26 40.63746 111.08819 38854 ft 502 kts 89°
2026-04-23 06:27 40.63622 111.18022 38860 ft 503 kts 89°
2026-04-23 06:27 40.63493 111.27223 38859 ft 503 kts 89°
2026-04-23 06:28 40.63354 111.36420 38862 ft 502 kts 89°
2026-04-23 06:28 40.63208 111.45614 38867 ft 502 kts 89°
2026-04-23 06:29 40.63055 111.54812 38870 ft 502 kts 89°
2026-04-23 06:29 40.62895 111.64004 38873 ft 502 kts 89°
2026-04-23 06:30 40.62728 111.73206 38875 ft 503 kts 89°
2026-04-23 06:30 40.62555 111.82339 38882 ft 502 kts 89°
2026-04-23 06:31 40.62373 111.91523 38878 ft 501 kts 89°
2026-04-23 06:31 40.62194 112.00696 38883 ft 501 kts 90°
2026-04-23 06:32 40.61985 112.09866 38884 ft 501 kts 90°
2026-04-23 06:32 40.61777 112.19044 38885 ft 501 kts 90°
2026-04-23 06:33 40.61567 112.28211 38886 ft 502 kts 90°
2026-04-23 06:33 40.61350 112.37389 38887 ft 501 kts 90°
2026-04-23 06:34 40.61126 112.46557 38883 ft 501 kts 90°
2026-04-23 06:34 40.60809 112.55745 38880 ft 503 kts 92°
2026-04-23 06:35 40.60245 112.64918 38868 ft 503 kts 93°
2026-04-23 06:35 40.59659 112.74087 38866 ft 503 kts 93°
2026-04-23 06:36 40.58929 112.83240 38865 ft 503 kts 95°
2026-04-23 06:36 40.58244 112.92400 38852 ft 503 kts 93°
2026-04-23 06:37 40.57639 113.01569 38844 ft 503 kts 93°
2026-04-23 06:37 40.57038 113.10733 38836 ft 503 kts 93°
2026-04-23 06:38 40.56419 113.19905 38837 ft 504 kts 94°
2026-04-23 06:38 40.55790 113.29019 38827 ft 504 kts 94°
2026-04-23 06:39 40.55149 113.38191 38821 ft 504 kts 94°
2026-04-23 06:39 40.54501 113.47360 38825 ft 504 kts 94°
2026-04-23 06:40 40.53845 113.56541 38821 ft 504 kts 94°
2026-04-23 06:40 40.53181 113.65728 38823 ft 504 kts 94°
2026-04-23 06:41 40.52511 113.74896 38815 ft 504 kts 94°
2026-04-23 06:41 40.51835 113.84064 38814 ft 504 kts 94°
2026-04-23 06:42 40.51151 113.93232 38805 ft 504 kts 94°
2026-04-23 06:42 40.50476 114.02392 38796 ft 504 kts 93°
2026-04-23 06:43 40.50071 114.11575 38796 ft 503 kts 91°
2026-04-23 06:43 40.49753 114.20767 38789 ft 504 kts 91°
2026-04-23 06:44 40.49392 114.29963 38786 ft 504 kts 92°
2026-04-23 06:44 40.48992 114.39147 38791 ft 504 kts 92°
2026-04-23 06:45 40.48575 114.48346 38787 ft 505 kts 92°
2026-04-23 06:45 40.48151 114.57564 38786 ft 505 kts 92°
2026-04-23 06:46 40.47720 114.66774 38787 ft 505 kts 92°
2026-04-23 06:46 40.47284 114.75986 38788 ft 505 kts 92°
2026-04-23 06:47 40.46838 114.85201 38787 ft 505 kts 92°
2026-04-23 06:47 40.46387 114.94406 38790 ft 505 kts 92°
2026-04-23 06:48 40.45928 115.03617 38794 ft 505 kts 92°
2026-04-23 06:48 40.45462 115.12830 38791 ft 506 kts 92°
2026-04-23 06:49 40.44987 115.22064 38793 ft 506 kts 92°
2026-04-23 06:49 40.44506 115.31280 38799 ft 507 kts 92°
2026-04-23 06:50 40.44015 115.40529 38810 ft 508 kts 93°
2026-04-23 06:50 40.43517 115.49783 38810 ft 509 kts 93°
2026-04-23 06:51 40.42964 115.58975 38822 ft 509 kts 95°
2026-04-23 06:51 40.42194 115.68206 38837 ft 510 kts 95°
2026-04-23 06:52 40.41391 115.77452 38836 ft 510 kts 95°
2026-04-23 06:52 40.40611 115.86708 38847 ft 510 kts 95°
2026-04-23 06:53 40.39844 115.95957 38858 ft 510 kts 95°
2026-04-23 06:53 40.39071 116.05222 38866 ft 511 kts 95°
2026-04-23 06:54 40.38290 116.14475 38871 ft 510 kts 95°
2026-04-23 06:54 40.37501 116.23727 38863 ft 510 kts 95°
2026-04-23 06:55 40.36705 116.32985 38877 ft 511 kts 95°
2026-04-23 06:55 40.35899 116.42252 38878 ft 512 kts 96°
2026-04-23 06:56 40.35085 116.51522 38876 ft 512 kts 96°
2026-04-23 06:56 40.34162 116.60712 38880 ft 513 kts 101°
2026-04-23 06:57 40.31681 116.69442 38876 ft 513 kts 121°
2026-04-23 06:57 40.27137 116.76542 38878 ft 509 kts 142°
2026-04-23 06:58 40.24236 116.79177 38882 ft 506 kts 153°
2026-04-23 06:58 40.21051 116.81090 38884 ft 502 kts 163°
2026-04-23 06:58 40.17687 116.82244 38880 ft 498 kts 174°
2026-04-23 06:58 40.14253 116.82628 38885 ft 494 kts 184°
2026-04-23 06:59 40.07495 116.81511 38884 ft 491 kts 190°
2026-04-23 06:59 40.00629 116.81465 38880 ft 498 kts 177°
2026-04-23 07:00 39.94903 116.82384 38887 ft 500 kts 175°
2026-04-23 07:00 39.88031 116.83760 38882 ft 500 kts 174°
2026-04-23 07:01 39.81148 116.85181 38881 ft 500 kts 174°
2026-04-23 07:01 39.74273 116.86603 38883 ft 501 kts 174°
2026-04-23 07:02 39.67391 116.88039 38885 ft 501 kts 174°
2026-04-23 07:02 39.60507 116.89468 38886 ft 501 kts 174°
2026-04-23 07:03 39.53618 116.90890 38883 ft 501 kts 174°
2026-04-23 07:03 39.46748 116.92304 38890 ft 501 kts 174°
2026-04-23 07:04 39.39858 116.93719 38892 ft 501 kts 174°
2026-04-23 07:04 39.32980 116.95130 38889 ft 500 kts 174°
2026-04-23 07:05 39.26112 116.96537 38893 ft 500 kts 174°
2026-04-23 07:05 39.19417 116.99072 38892 ft 507 kts 158°
2026-04-23 07:06 39.16345 117.01329 38900 ft 511 kts 147°
2026-04-23 07:06 39.13606 117.04257 38901 ft 514 kts 136°
2026-04-23 07:06 39.09520 117.11809 38905 ft 519 kts 115°
2026-04-23 07:07 39.08321 117.16184 38902 ft 520 kts 104°
2026-04-23 07:07 39.07743 117.20772 38913 ft 520 kts 93°
2026-04-23 07:07 39.07803 117.25420 38921 ft 520 kts 82°
2026-04-23 07:07 39.08094 117.30056 38916 ft 521 kts 88°
2026-04-23 07:08 39.07760 117.39364 38915 ft 521 kts 89°
2026-04-23 07:08 39.07756 117.48688 38905 ft 521 kts 90°
2026-04-23 07:09 39.07650 117.58025 38912 ft 522 kts 90°
2026-04-23 07:09 39.07537 117.67307 38909 ft 522 kts 90°
2026-04-23 07:10 39.07417 117.76639 38920 ft 522 kts 90°
2026-04-23 07:10 39.07290 117.85990 38916 ft 522 kts 90°
2026-04-23 07:11 39.07157 117.95335 38919 ft 522 kts 91°
2026-04-23 07:12 39.06117 118.09252 38917 ft 522 kts 101°
2026-04-23 07:12 39.04714 118.18423 38919 ft 522 kts 102°
2026-04-23 07:13 39.03235 118.27566 38920 ft 522 kts 102°
2026-04-23 07:13 39.01755 118.36700 38928 ft 522 kts 102°
2026-04-23 07:14 39.00280 118.45847 38934 ft 523 kts 102°
2026-04-23 07:14 38.98815 118.54938 38933 ft 523 kts 102°
2026-04-23 07:15 38.97331 118.64080 38930 ft 523 kts 102°
2026-04-23 07:15 38.95837 118.73224 38935 ft 523 kts 103°
2026-04-23 07:16 38.94334 118.82372 38936 ft 523 kts 103°
2026-04-23 07:16 38.92826 118.91512 38942 ft 523 kts 103°
2026-04-23 07:17 38.91310 119.00657 38937 ft 524 kts 103°
2026-04-23 07:17 38.89789 119.09818 38944 ft 525 kts 103°
2026-04-23 07:18 38.88252 119.18971 38948 ft 525 kts 103°
2026-04-23 07:18 38.86706 119.28127 38947 ft 525 kts 103°
2026-04-23 07:19 38.85153 119.37292 38947 ft 526 kts 103°
2026-04-23 07:19 38.83591 119.46467 38947 ft 526 kts 103°
2026-04-23 07:20 38.82024 119.55628 38943 ft 526 kts 104°
2026-04-23 07:20 38.80443 119.64821 38955 ft 528 kts 104°
2026-04-23 07:21 38.78866 119.73950 38952 ft 528 kts 104°
2026-04-23 07:21 38.77272 119.83128 38951 ft 528 kts 104°
2026-04-23 07:22 38.75713 119.92353 38953 ft 530 kts 103°
2026-04-23 07:22 38.74193 120.01592 38960 ft 530 kts 103°
2026-04-23 07:23 38.72415 120.10731 38968 ft 526 kts 114°
2026-04-23 07:23 38.70782 120.14884 38964 ft 520 kts 127°
2026-04-23 07:23 38.68525 120.18444 38960 ft 512 kts 141°
2026-04-23 07:23 38.65744 120.21223 38963 ft 504 kts 154°
2026-04-23 07:24 38.62605 120.23094 38964 ft 494 kts 168°
2026-04-23 07:24 38.56319 120.26772 38963 ft 509 kts 148°
2026-04-23 07:24 38.53687 120.29836 38969 ft 517 kts 133°
2026-04-23 07:25 38.51703 120.33700 38969 ft 525 kts 118°
2026-04-23 07:25 38.50519 120.38114 38969 ft 530 kts 102°
2026-04-23 07:25 38.50218 120.42804 38962 ft 533 kts 87°
2026-04-23 07:25 38.50813 120.47404 38968 ft 534 kts 72°
2026-04-23 07:26 38.52293 120.51770 38969 ft 532 kts 56°
2026-04-23 07:26 38.54500 120.55439 38969 ft 526 kts 41°
2026-04-23 07:26 38.57175 120.58608 38967 ft 525 kts 38°
2026-04-23 07:27 38.61909 120.65757 38968 ft 532 kts 59°
2026-04-23 07:27 38.63376 120.70091 38979 ft 533 kts 72°
2026-04-23 07:27 38.64381 120.74655 38970 ft 534 kts 77°
2026-04-23 07:28 38.64910 120.84084 38970 ft 533 kts 98°
2026-04-23 07:28 38.64200 120.88719 38972 ft 529 kts 109°
2026-04-23 07:28 38.62932 120.93126 38972 ft 527 kts 117°
2026-04-23 07:29 38.59619 121.01458 38969 ft 526 kts 122°
2026-04-23 07:29 38.56089 121.09656 38971 ft 527 kts 122°
2026-04-23 07:30 38.52637 121.17931 38977 ft 528 kts 121°
2026-04-23 07:30 38.49255 121.26252 38968 ft 528 kts 121°
2026-04-23 07:31 38.45883 121.34590 38976 ft 529 kts 121°
2026-04-23 07:31 38.42526 121.42956 38970 ft 531 kts 117°
2026-04-23 07:32 38.40282 121.51960 38974 ft 536 kts 105°
2026-04-23 07:32 38.38662 121.61261 38977 ft 538 kts 104°
2026-04-23 07:33 38.37136 121.70590 38976 ft 539 kts 104°
2026-04-23 07:33 38.35587 121.79936 38964 ft 538 kts 104°
2026-04-23 07:34 38.34010 121.89270 38976 ft 541 kts 104°
2026-04-23 07:34 38.32410 121.98643 38983 ft 541 kts 105°
2026-04-23 07:35 38.30803 122.07999 38973 ft 541 kts 105°
2026-04-23 07:35 38.29188 122.17366 38980 ft 542 kts 105°
2026-04-23 07:36 38.27566 122.26740 38979 ft 543 kts 105°
2026-04-23 07:36 38.26164 122.36189 38972 ft 543 kts 102°
2026-04-23 07:37 38.23844 122.45131 38979 ft 533 kts 122°
2026-04-23 07:37 38.21856 122.49071 38979 ft 525 kts 134°
2026-04-23 07:37 38.19470 122.52565 38974 ft 521 kts 138°
2026-04-23 07:38 38.14420 122.59179 38980 ft 521 kts 141°
2026-04-23 07:38 38.09277 122.65671 38975 ft 522 kts 141°
2026-04-23 07:39 38.04165 122.72223 38977 ft 523 kts 140°
2026-04-23 07:39 37.99075 122.78822 38977 ft 523 kts 140°
2026-04-23 07:40 37.93989 122.85420 38973 ft 523 kts 140°
2026-04-23 07:40 37.88896 122.92007 38972 ft 523 kts 141°
2026-04-23 07:41 37.83796 122.98583 38978 ft 523 kts 141°
2026-04-23 07:41 37.78701 123.05138 38967 ft 523 kts 141°
2026-04-23 07:42 37.73594 123.11695 38978 ft 523 kts 141°
2026-04-23 07:42 37.68491 123.18234 38964 ft 523 kts 141°
2026-04-23 07:43 37.63384 123.24764 38972 ft 522 kts 141°
2026-04-23 07:43 37.58279 123.31284 38972 ft 523 kts 141°
2026-04-23 07:44 37.53623 123.38429 38964 ft 529 kts 134°
2026-04-23 07:44 37.49181 123.45831 38962 ft 530 kts 133°
2026-04-23 07:45 37.44776 123.53255 38966 ft 529 kts 133°
2026-04-23 07:45 37.40353 123.60676 38965 ft 529 kts 133°
2026-04-23 07:46 37.35925 123.68068 38965 ft 529 kts 133°
2026-04-23 07:46 37.31489 123.75451 38961 ft 529 kts 134°
2026-04-23 07:47 37.27047 123.82824 38955 ft 529 kts 134°
2026-04-23 07:47 37.22603 123.90187 38958 ft 529 kts 134°
2026-04-23 07:48 37.18715 123.98040 38929 ft 544 kts 118°
2026-04-23 07:48 37.17511 124.02581 38983 ft 554 kts 107°
2026-04-23 07:48 37.16994 124.07390 39110 ft 560 kts 94°
2026-04-23 07:48 37.16969 124.12271 39262 ft 561 kts 91°
2026-04-23 07:49 37.17090 124.17163 39390 ft 561 kts 89°
2026-04-23 07:49 37.17276 124.22053 39528 ft 562 kts 89°
2026-04-23 07:49 37.17480 124.26945 39590 ft 564 kts 89°
2026-04-23 07:50 37.18032 124.36758 39808 ft 565 kts 81°
2026-04-23 07:50 37.18941 124.41558 39913 ft 566 kts 71°
2026-04-23 07:50 37.20474 124.46077 40059 ft 562 kts 59°
2026-04-23 07:50 37.22395 124.50350 40176 ft 562 kts 57°
2026-04-23 07:51 37.24421 124.54533 40210 ft 563 kts 55°
2026-04-23 07:51 37.26508 124.58687 40326 ft 562 kts 54°
2026-04-23 07:51 37.28612 124.62828 40454 ft 562 kts 54°
2026-04-23 07:52 37.32095 124.69712 40684 ft 561 kts 55°
2026-04-23 07:52 37.34173 124.73862 40808 ft 560 kts 55°
2026-04-23 07:52 37.36204 124.78052 40841 ft 564 kts 59°
2026-04-23 07:52 37.37819 124.82550 40881 ft 566 kts 70°
2026-04-23 07:53 37.38801 124.87335 40934 ft 566 kts 82°
2026-04-23 07:53 37.39365 124.97179 40936 ft 564 kts 90°
2026-04-23 07:54 37.39512 125.07054 40944 ft 565 kts 91°
2026-04-23 07:54 37.39617 125.16923 40933 ft 565 kts 91°
2026-04-23 07:55 37.39760 125.26793 40909 ft 565 kts 91°
2026-04-23 07:55 37.39919 125.36681 40923 ft 566 kts 91°
2026-04-23 07:56 37.40075 125.46581 40924 ft 566 kts 91°
2026-04-23 07:56 37.40221 125.56492 40915 ft 567 kts 91°
2026-04-23 07:57 37.40358 125.66410 40913 ft 567 kts 91°
2026-04-23 07:57 37.40489 125.76325 40890 ft 567 kts 91°
2026-04-23 07:58 37.40605 125.86256 40914 ft 568 kts 91°
2026-04-23 07:58 37.40713 125.96198 40914 ft 568 kts 91°
2026-04-23 07:59 37.40815 126.06137 40911 ft 568 kts 91°
2026-04-23 07:59 37.40909 126.16074 40918 ft 568 kts 91°
2026-04-23 08:00 37.40994 126.25943 40892 ft 568 kts 91°
2026-04-23 08:00 37.41072 126.35881 40912 ft 568 kts 91°
2026-04-23 08:01 37.41141 126.45884 40908 ft 569 kts 91°
2026-04-23 08:01 37.41203 126.55755 40909 ft 569 kts 91°
2026-04-23 08:02 37.41258 126.65696 40915 ft 568 kts 91°
2026-04-23 08:02 37.41306 126.75638 40866 ft 568 kts 92°
2026-04-23 08:03 37.41344 126.85572 40884 ft 568 kts 92°
2026-04-23 08:03 37.41883 126.95486 40891 ft 570 kts 81°
2026-04-23 08:04 37.43359 127.05288 40886 ft 571 kts 78°
2026-04-23 08:04 37.44985 127.15072 40899 ft 571 kts 78°
2026-04-23 08:05 37.46617 127.24841 40887 ft 571 kts 78°
2026-04-23 08:05 37.48225 127.34633 40901 ft 571 kts 78°
2026-04-23 08:06 37.49809 127.44434 40909 ft 572 kts 79°
2026-04-23 08:06 37.51374 127.54253 40910 ft 572 kts 79°
2026-04-23 08:07 37.52939 127.64084 40914 ft 573 kts 79°
2026-04-23 08:07 37.54495 127.73920 40902 ft 572 kts 79°
2026-04-23 08:08 37.56055 127.83774 40938 ft 574 kts 79°
2026-04-23 08:08 37.57608 127.93640 40915 ft 573 kts 79°
2026-04-23 08:09 37.59150 128.03508 40922 ft 574 kts 79°
2026-04-23 08:09 37.60685 128.13397 40929 ft 575 kts 79°
2026-04-23 08:10 37.62217 128.23294 40934 ft 574 kts 79°
2026-04-23 08:10 37.64481 128.38081 40956 ft 576 kts 79°
2026-04-23 08:11 37.65988 128.48006 40968 ft 575 kts 79°
2026-04-23 08:11 37.67486 128.57916 40979 ft 574 kts 79°
2026-04-23 08:12 37.68822 128.67843 40979 ft 572 kts 88°
2026-04-23 08:12 37.68810 128.72847 40992 ft 568 kts 99°
2026-04-23 08:12 37.68103 128.77714 40996 ft 561 kts 111°
2026-04-23 08:13 37.66709 128.82245 40997 ft 550 kts 124°
2026-04-23 08:13 37.64888 128.86484 41000 ft 547 kts 127°
2026-04-23 08:13 37.60970 128.94703 40994 ft 546 kts 129°
2026-04-23 08:14 37.56959 129.02853 41000 ft 547 kts 129°
2026-04-23 08:14 37.52985 129.11021 40999 ft 547 kts 128°
2026-04-23 08:15 37.49024 129.19218 41001 ft 548 kts 128°
2026-04-23 08:15 37.45064 129.27410 40999 ft 548 kts 128°
2026-04-23 08:16 37.41101 129.35601 40968 ft 548 kts 129°
2026-04-23 08:16 37.37128 129.43773 40987 ft 548 kts 129°
2026-04-23 08:17 37.33515 129.51180 40989 ft 548 kts 129°
2026-04-23 08:17 37.29525 129.59347 40966 ft 548 kts 129°
2026-04-23 08:18 37.25541 129.67486 40977 ft 547 kts 129°
2026-04-23 08:18 37.21551 129.75616 40986 ft 547 kts 129°
2026-04-23 08:19 37.17559 129.83730 40970 ft 546 kts 129°
2026-04-23 08:19 37.13573 129.91829 40969 ft 545 kts 129°
2026-04-23 08:20 37.09581 129.99898 40966 ft 545 kts 129°
2026-04-23 08:20 37.05582 130.07960 40961 ft 544 kts 130°
2026-04-23 08:21 37.01590 130.15997 40946 ft 543 kts 130°
2026-04-23 08:21 36.97601 130.24010 40955 ft 542 kts 130°
2026-04-23 08:22 36.93611 130.32006 40945 ft 541 kts 130°
2026-04-23 08:22 36.89650 130.39925 40944 ft 540 kts 130°
2026-04-23 08:23 36.85660 130.47879 40915 ft 540 kts 130°
2026-04-23 08:23 36.81669 130.55819 40934 ft 540 kts 130°
2026-04-23 08:24 36.77676 130.63746 40933 ft 539 kts 130°
2026-04-23 08:24 36.73679 130.71669 40934 ft 539 kts 130°
2026-04-23 08:25 36.69678 130.79576 40929 ft 539 kts 130°
2026-04-23 08:25 36.65669 130.87473 40929 ft 539 kts 130°
2026-04-23 08:26 36.61657 130.95361 40925 ft 539 kts 130°
2026-04-23 08:26 36.57641 131.03240 40920 ft 539 kts 130°
2026-04-23 08:27 36.53626 131.11101 40917 ft 539 kts 130°
2026-04-23 08:27 36.49602 131.18961 40915 ft 538 kts 130°
2026-04-23 08:28 36.45609 131.26744 40911 ft 538 kts 130°
2026-04-23 08:28 36.41552 131.34630 40911 ft 538 kts 131°
2026-04-23 08:29 36.38176 131.42943 40909 ft 554 kts 114°
2026-04-23 08:29 36.37308 131.47631 40908 ft 563 kts 101°
2026-04-23 08:29 36.36943 131.52479 40902 ft 566 kts 97°
2026-04-23 08:30 36.36602 131.62263 40901 ft 568 kts 95°
2026-04-23 08:30 36.36381 131.72123 40901 ft 568 kts 95°
2026-04-23 08:31 36.36113 131.81913 40895 ft 568 kts 96°
2026-04-23 08:31 36.35799 131.91628 40899 ft 567 kts 96°
2026-04-23 08:32 36.35463 132.01403 40889 ft 567 kts 96°
2026-04-23 08:32 36.35119 132.11185 40901 ft 568 kts 96°
2026-04-23 08:33 36.34770 132.20968 40907 ft 568 kts 96°
2026-04-23 08:33 36.34413 132.30752 40894 ft 568 kts 96°
2026-04-23 08:34 36.34049 132.40530 40892 ft 568 kts 96°
2026-04-23 08:34 36.33677 132.50311 40894 ft 568 kts 96°
2026-04-23 08:35 36.33296 132.60086 40890 ft 567 kts 96°
2026-04-23 08:35 36.32908 132.69854 40884 ft 566 kts 96°
2026-04-23 08:36 36.32513 132.79597 40900 ft 566 kts 96°
2026-04-23 08:36 36.32110 132.89355 40883 ft 566 kts 96°
2026-04-23 08:37 36.31699 132.99103 40885 ft 566 kts 96°
2026-04-23 08:37 36.31283 133.08771 40898 ft 566 kts 96°
2026-04-23 08:38 36.30856 133.18521 40882 ft 566 kts 96°
2026-04-23 08:38 36.30422 133.28262 40881 ft 566 kts 96°
2026-04-23 08:39 36.29979 133.38009 40887 ft 567 kts 96°
2026-04-23 08:39 36.29528 133.47759 40880 ft 566 kts 96°
2026-04-23 08:40 36.29069 133.57507 40892 ft 566 kts 97°
2026-04-23 08:40 36.28604 133.67249 40865 ft 566 kts 97°
2026-04-23 08:41 36.28210 133.75339 40878 ft 566 kts 97°
2026-04-23 08:41 36.27734 133.85080 40875 ft 566 kts 97°
2026-04-23 08:42 36.27243 133.94817 40877 ft 566 kts 97°
2026-04-23 08:42 36.26743 134.04550 40887 ft 566 kts 97°
2026-04-23 08:43 36.26243 134.14262 40878 ft 565 kts 97°
2026-04-23 08:43 36.25730 134.23980 40879 ft 565 kts 97°
2026-04-23 08:44 36.25207 134.33689 40875 ft 565 kts 97°
2026-04-23 08:44 36.24678 134.43400 40874 ft 565 kts 97°
2026-04-23 08:45 36.24877 134.53142 40879 ft 570 kts 82°
2026-04-23 08:45 36.26324 134.62816 40876 ft 572 kts 79°
2026-04-23 08:46 36.27972 134.72459 40876 ft 572 kts 79°
2026-04-23 08:46 36.29627 134.82102 40876 ft 572 kts 79°
2026-04-23 08:47 36.31247 134.91756 40874 ft 573 kts 79°
2026-04-23 08:47 36.32846 135.01433 40883 ft 573 kts 79°
2026-04-23 08:48 36.34435 135.11109 40878 ft 573 kts 80°
2026-04-23 08:48 36.36017 135.20794 40883 ft 573 kts 80°
2026-04-23 08:49 36.37593 135.30484 40883 ft 573 kts 80°
2026-04-23 08:49 36.39160 135.40171 40888 ft 573 kts 80°
2026-04-23 08:50 36.40719 135.49869 40874 ft 573 kts 80°
2026-04-23 08:50 36.42272 135.59579 40880 ft 573 kts 80°
2026-04-23 08:51 36.43814 135.69286 40891 ft 573 kts 80°
2026-04-23 08:51 36.45351 135.79008 40883 ft 574 kts 81°
2026-04-23 08:52 36.46881 135.88737 40883 ft 574 kts 81°
2026-04-23 08:52 36.48404 135.98474 40891 ft 574 kts 81°
2026-04-23 08:53 36.49921 136.08218 40859 ft 574 kts 81°
2026-04-23 08:53 36.51421 136.17906 40866 ft 574 kts 81°
2026-04-23 08:54 36.52922 136.27660 40870 ft 574 kts 81°
2026-04-23 08:54 36.54417 136.37420 40865 ft 575 kts 81°
2026-04-23 08:55 36.55905 136.47185 40863 ft 575 kts 81°
2026-04-23 08:55 36.57386 136.56964 40884 ft 575 kts 81°
2026-04-23 08:56 36.58858 136.66739 40891 ft 575 kts 81°
2026-04-23 08:56 36.60321 136.76522 40893 ft 575 kts 81°
2026-04-23 08:57 36.61776 136.86308 40899 ft 575 kts 81°
2026-04-23 08:57 36.63225 136.96110 40895 ft 576 kts 81°
2026-04-23 08:58 36.64652 137.05916 40891 ft 576 kts 81°
2026-04-23 08:58 36.66083 137.15726 40881 ft 576 kts 81°
2026-04-23 08:59 36.67479 137.25551 40885 ft 577 kts 82°
2026-04-23 08:59 36.68857 137.35403 40885 ft 578 kts 81°
2026-04-23 09:00 36.70249 137.45260 40900 ft 578 kts 81°
2026-04-23 09:00 36.71634 137.55132 40924 ft 579 kts 82°
2026-04-23 09:01 36.72998 137.65027 40945 ft 579 kts 82°
2026-04-23 09:01 36.74352 137.74910 40931 ft 578 kts 82°
2026-04-23 09:02 36.75689 137.84709 40944 ft 578 kts 82°
2026-04-23 09:02 36.77040 137.94603 40948 ft 579 kts 82°
2026-04-23 09:03 36.78386 138.04518 40945 ft 579 kts 82°
2026-04-23 09:03 36.79729 138.14430 40946 ft 580 kts 82°
2026-04-23 09:04 36.81096 138.24358 40947 ft 581 kts 82°
2026-04-23 09:04 36.82460 138.34293 40943 ft 581 kts 82°
2026-04-23 09:05 36.83814 138.44229 40959 ft 581 kts 82°
2026-04-23 09:05 36.85153 138.54164 40939 ft 581 kts 82°
2026-04-23 09:06 36.86462 138.64121 40954 ft 580 kts 82°
2026-04-23 09:06 36.87760 138.74079 40943 ft 581 kts 82°
2026-04-23 09:07 36.89057 138.84053 40958 ft 582 kts 82°
2026-04-23 09:07 36.90354 138.94051 40960 ft 583 kts 82°
2026-04-23 09:08 36.91638 139.04054 40938 ft 583 kts 82°
2026-04-23 09:08 36.92915 139.13995 40955 ft 584 kts 82°
2026-04-23 09:09 36.94220 139.24019 40958 ft 584 kts 82°
2026-04-23 09:09 36.95513 139.34034 40960 ft 583 kts 82°
2026-04-23 09:10 36.97437 139.49030 40953 ft 582 kts 83°
2026-04-23 09:11 36.98710 139.59039 40955 ft 583 kts 83°
2026-04-23 09:11 36.99972 139.69082 40946 ft 585 kts 83°
2026-04-23 09:12 37.01235 139.79132 40952 ft 585 kts 83°
2026-04-23 09:12 37.02472 139.89168 40933 ft 583 kts 83°
2026-04-23 09:13 37.03712 139.99199 40933 ft 583 kts 83°
2026-04-23 09:13 37.04937 140.09241 40923 ft 585 kts 83°
2026-04-23 09:13 37.05195 140.14307 40923 ft 579 kts 97°
2026-04-23 09:14 37.04615 140.19226 40920 ft 567 kts 112°
2026-04-23 09:14 37.03196 140.23734 40918 ft 549 kts 128°
2026-04-23 09:14 37.01042 140.27569 40917 ft 528 kts 143°
2026-04-23 09:14 36.98347 140.30513 40912 ft 504 kts 158°
2026-04-23 09:15 36.95348 140.32561 40706 ft 480 kts 170°
2026-04-23 09:15 36.92230 140.33745 39988 ft 460 kts 182°
2026-04-23 09:15 36.89115 140.34063 39292 ft 441 kts 193°
2026-04-23 09:15 36.86100 140.33702 38668 ft 431 kts 198°
2026-04-23 09:16 36.83095 140.33408 37990 ft 436 kts 192°
2026-04-23 09:16 36.80038 140.33579 37489 ft 444 kts 184°
2026-04-23 09:16 36.76978 140.34202 36970 ft 447 kts 180°
2026-04-23 09:16 36.73977 140.35145 36389 ft 456 kts 173°
2026-04-23 09:17 36.70925 140.36474 35721 ft 460 kts 172°
2026-04-23 09:17 36.67913 140.37841 35052 ft 461 kts 171°
2026-04-23 09:17 36.64888 140.39208 34312 ft 463 kts 171°
2026-04-23 09:17 36.61845 140.40573 33499 ft 466 kts 171°
2026-04-23 09:18 36.58824 140.41922 32704 ft 468 kts 171°
2026-04-23 09:18 36.55751 140.43275 31855 ft 470 kts 171°
2026-04-23 09:18 36.52653 140.44615 31014 ft 473 kts 171°
2026-04-23 09:18 36.49533 140.45941 30154 ft 475 kts 171°
2026-04-23 09:19 36.46393 140.47296 29149 ft 480 kts 170°
2026-04-23 09:19 36.43258 140.48662 28474 ft 476 kts 169°
2026-04-23 09:19 36.40149 140.50081 27810 ft 474 kts 168°
2026-04-23 09:19 36.37073 140.51526 27138 ft 471 kts 168°
2026-04-23 09:20 36.34020 140.52951 26453 ft 468 kts 168°
2026-04-23 09:20 36.31094 140.54786 25901 ft 477 kts 154°
2026-04-23 09:20 36.28529 140.57475 25267 ft 489 kts 140°
2026-04-23 09:20 36.26301 140.60686 24618 ft 491 kts 136°
2026-04-23 09:21 36.24108 140.63942 23628 ft 497 kts 136°
2026-04-23 09:21 36.21884 140.67176 23063 ft 489 kts 137°
2026-04-23 09:21 36.19616 140.70291 22323 ft 484 kts 139°
2026-04-23 09:21 36.17338 140.73308 21892 ft 474 kts 139°
2026-04-23 09:22 36.15082 140.76251 21320 ft 468 kts 139°
2026-04-23 09:22 36.12806 140.79059 20691 ft 458 kts 147°
2026-04-23 09:22 36.10144 140.81009 20212 ft 435 kts 164°
2026-04-23 09:22 36.07314 140.82197 19664 ft 426 kts 169°
2026-04-23 09:23 36.04495 140.83276 19027 ft 424 kts 168°
2026-04-23 09:23 36.01703 140.84431 18509 ft 421 kts 167°
2026-04-23 09:23 35.98958 140.85639 17796 ft 420 kts 166°
2026-04-23 09:23 35.96272 140.86829 17310 ft 412 kts 166°
2026-04-23 09:24 35.93559 140.88029 16788 ft 406 kts 166°
2026-04-23 09:24 35.90950 140.89180 16220 ft 402 kts 166°
2026-04-23 09:24 35.88335 140.90333 15670 ft 397 kts 165°
2026-04-23 09:24 35.85745 140.91474 15100 ft 393 kts 165°
2026-04-23 09:25 35.83179 140.92606 14542 ft 390 kts 165°
2026-04-23 09:25 35.80617 140.93733 13973 ft 392 kts 165°
2026-04-23 09:25 35.78049 140.94859 13349 ft 390 kts 165°
2026-04-23 09:25 35.75504 140.95976 12700 ft 387 kts 165°
2026-04-23 09:26 35.72975 140.97084 12065 ft 384 kts 164°
2026-04-23 09:26 35.70469 140.98183 11443 ft 380 kts 164°
2026-04-23 09:26 35.68000 140.99265 10836 ft 375 kts 163°
2026-04-23 09:26 35.65559 141.00335 10236 ft 372 kts 163°
2026-04-23 09:27 35.63127 141.01406 9602 ft 367 kts 163°
2026-04-23 09:27 35.60793 141.02431 8904 ft 345 kts 163°
2026-04-23 09:27 35.58592 141.03392 8249 ft 327 kts 162°
2026-04-23 09:27 35.56504 141.04303 7597 ft 311 kts 162°
2026-04-23 09:28 35.54500 141.05149 6964 ft 298 kts 163°
2026-04-23 09:28 35.52532 141.05687 6539 ft 278 kts 173°
2026-04-23 09:28 35.50690 141.05721 6502 ft 267 kts 186°
2026-04-23 09:28 35.48886 141.05130 6512 ft 269 kts 204°
2026-04-23 09:29 35.47382 141.03788 6513 ft 270 kts 227°
2026-04-23 09:29 35.46455 141.01792 6505 ft 273 kts 251°
2026-04-23 09:29 35.46022 140.99522 6519 ft 274 kts 257°
2026-04-23 09:29 35.45678 140.97223 6505 ft 275 kts 258°
2026-04-23 09:30 35.45332 140.94920 6496 ft 275 kts 257°
2026-04-23 09:30 35.44978 140.92616 6504 ft 275 kts 257°
2026-04-23 09:30 35.44619 140.90313 6500 ft 275 kts 256°
2026-04-23 09:30 35.44255 140.88015 6504 ft 275 kts 257°
2026-04-23 09:31 35.43886 140.85705 6501 ft 277 kts 256°
2026-04-23 09:31 35.43519 140.83379 6504 ft 279 kts 256°
2026-04-23 09:31 35.43141 140.81047 6505 ft 279 kts 257°
2026-04-23 09:31 35.42763 140.78711 6494 ft 279 kts 257°
2026-04-23 09:32 35.42387 140.76386 6455 ft 278 kts 256°
2026-04-23 09:32 35.42061 140.74044 6252 ft 280 kts 263°
2026-04-23 09:32 35.42134 140.72429 5984 ft 282 kts 281°
2026-04-23 09:32 35.42717 140.70140 5827 ft 283 kts 289°
2026-04-23 09:33 35.43404 140.67882 5700 ft 283 kts 289°
2026-04-23 09:33 35.44084 140.65656 5613 ft 281 kts 289°
2026-04-23 09:33 35.44924 140.63516 5492 ft 280 kts 304°
2026-04-23 09:33 35.46239 140.61748 5397 ft 281 kts 317°
2026-04-23 09:34 35.47695 140.60107 5283 ft 276 kts 317°
2026-04-23 09:34 35.49063 140.58572 5161 ft 266 kts 317°
2026-04-23 09:34 35.50391 140.57041 5050 ft 259 kts 316°
2026-04-23 09:34 35.51770 140.55649 4926 ft 253 kts 326°
2026-04-23 09:35 35.53233 140.54543 4829 ft 242 kts 330°
2026-04-23 09:35 35.54655 140.53524 4683 ft 233 kts 330°
2026-04-23 09:35 35.56019 140.52515 4436 ft 227 kts 329°
2026-04-23 09:35 35.57363 140.51519 4134 ft 224 kts 330°
2026-04-23 09:36 35.58687 140.50554 3776 ft 218 kts 330°
2026-04-23 09:36 35.59957 140.49628 3446 ft 205 kts 330°
2026-04-23 09:36 35.61129 140.48770 3179 ft 187 kts 331°
2026-04-23 09:36 35.62208 140.47982 2925 ft 173 kts 330°
2026-04-23 09:37 35.63194 140.47262 2701 ft 158 kts 331°
2026-04-23 09:37 35.64101 140.46598 2499 ft 147 kts 331°
2026-04-23 09:37 35.64954 140.45974 2330 ft 139 kts 332°
2026-04-23 09:37 35.65778 140.45372 2140 ft 138 kts 332°
2026-04-23 09:38 35.66602 140.44770 1949 ft 138 kts 333°
2026-04-23 09:38 35.67429 140.44165 1755 ft 137 kts 332°
2026-04-23 09:38 35.68252 140.43563 1578 ft 138 kts 332°
2026-04-23 09:38 35.69073 140.42962 1381 ft 137 kts 331°
2026-04-23 09:39 35.69893 140.42361 1199 ft 138 kts 332°
2026-04-23 09:39 35.70715 140.41760 1023 ft 137 kts 333°
2026-04-23 09:39 35.71530 140.41162 829 ft 135 kts 330°
2026-04-23 09:39 35.72325 140.40566 652 ft 133 kts 329°
2026-04-23 09:40 35.73111 140.39970 515 ft 135 kts 331°
2026-04-23 09:40 35.73921 140.39370 316 ft 136 kts 331°
2026-04-23 09:40 35.74754 140.38767 161 ft 138 kts 332°
2026-04-23 09:40 35.75474 140.38251 151 ft 87 kts 330°
2026-04-23 09:41 35.75749 140.38053 153 ft 20 kts 329°
2026-04-23 09:41 35.75868 140.37991 153 ft 18 kts 351°
2026-04-23 09:41 35.75985 140.37982 151 ft 16 kts
2026-04-23 09:41 35.76087 140.37981 150 ft 14 kts 359°
2026-04-23 09:42 35.76154 140.37991 150 ft 2 kts 48°
2026-04-23 09:42 35.76154 140.37996 150 ft 1 kts 72°
2026-04-23 09:42 35.76145 140.38009 150 ft 5 kts 135°
2026-04-23 09:42 35.76098 140.38052 150 ft 9 kts 148°
2026-04-23 09:43 35.76045 140.38092 150 ft 9 kts 149°
2026-04-23 09:43 35.75990 140.38132 151 ft 9 kts 150°
2026-04-23 09:43 35.75926 140.38178 151 ft 11 kts 150°
2026-04-23 09:43 35.75859 140.38226 151 ft 11 kts 149°
2026-04-23 09:44 35.75841 140.38259 151 ft 3 kts 95°
2026-04-23 09:44 35.75844 140.38274 151 ft 1 kts 74°
2026-04-23 09:44 35.75853 140.38329 151 ft 8 kts 95°
2026-04-23 09:44 35.75821 140.38380 151 ft 7 kts 144°
2026-04-23 09:45 35.75774 140.38415 150 ft 8 kts 148°
2026-04-23 09:45 35.75721 140.38456 150 ft 9 kts 148°
2026-04-23 09:45 35.75662 140.38500 150 ft 10 kts 149°
2026-04-23 09:45 35.75614 140.38540 150 ft 8 kts 133°
2026-04-23 09:46 35.75599 140.38605 150 ft 8 kts 95°
2026-04-23 09:46 35.75599 140.38676 150 ft 9 kts 83°
2026-04-23 09:46 35.75618 140.38738 150 ft 7 kts 61°
2026-04-23 09:46 35.75643 140.38793 150 ft 8 kts 60°
2026-04-23 09:47 35.75672 140.38850 150 ft 7 kts 53°
2026-04-23 09:47 35.75709 140.38864 152 ft 5 kts 359°
2026-04-23 09:47 35.75749 140.38842 150 ft 9 kts 332°
2026-04-23 09:47 35.75816 140.38827 150 ft 12 kts 12°
2026-04-23 09:48 35.75897 140.38865 150 ft 12 kts 24°
2026-04-23 09:48 35.75968 140.38903 150 ft 10 kts 24°
2026-04-23 09:48 35.76017 140.38926 150 ft 5 kts
2026-04-23 09:48 35.76042 140.38915 150 ft 5 kts 329°
2026-04-23 09:49 35.76067 140.38875 150 ft 7 kts 297°
2026-04-23 09:49 35.76098 140.38797 150 ft 13 kts 294°
2026-04-23 09:49 35.76142 140.38722 150 ft 6 kts 356°
2026-04-23 09:49 35.76177 140.38751 150 ft 6 kts 41°
2026-04-23 09:50 35.76189 140.38765 150 ft 0 kts 43°
2026-04-23 09:50 35.76190 140.38765 150 ft 0 kts 42°
2026-04-23 09:50 35.76199 140.38776 150 ft 2 kts 43°
2026-04-23 09:50 35.76201 140.38778 150 ft 0 kts 43°